Time,TemperatureF,DewpointF,PressureIn,WindDirection,WindDirectionDegrees,WindSpeedMPH,WindSpeedGustMPH,Humidity,HourlyPrecipIn,Conditions,Clouds,dailyrainin,SoftwareType,DateUTC
2013-08-25 00:02:00,77.7,72.8,30.11,ENE,67,0.0,0.0,85,0.00,,---,0.00,VWS V14.01,2013-08-25 05:02:00,
2013-08-25 00:03:00,77.7,72.8,30.11,ENE,67,0.0,0.0,85,0.00,,---,0.00,VWS V14.01,2013-08-25 05:03:00,
2013-08-25 00:04:00,77.6,72.7,30.11,ENE,67,0.0,0.0,85,0.00,,---,0.00,VWS V14.01,2013-08-25 05:04:00,
2013-08-25 00:07:00,77.5,72.6,30.11,ENE,67,0.0,0.0,85,0.00,,---,0.00,VWS V14.01,2013-08-25 05:07:00,
2013-08-25 00:09:00,77.4,72.5,30.11,ENE,67,0.0,0.0,85,0.00,,---,0.00,VWS V14.01,2013-08-25 05:09:00,
2013-08-25 00:12:00,77.3,72.4,30.11,ENE,67,0.0,0.0,85,0.00,,---,0.00,VWS V14.01,2013-08-25 05:12:00,
2013-08-25 00:13:00,77.3,72.4,30.11,ENE,67,0.0,0.0,85,0.00,,---,0.00,VWS V14.01,2013-08-25 05:13:00,
2013-08-25 00:14:00,77.3,72.4,30.11,ENE,67,0.0,0.0,85,0.00,,---,0.00,VWS V14.01,2013-08-25 05:14:00,
2013-08-25 00:18:00,77.3,72.4,30.11,ENE,67,0.0,1.0,85,0.00,,---,0.00,VWS V14.01,2013-08-25 05:18:00,
2013-08-25 00:19:00,77.3,72.4,30.11,ENE,67,0.0,1.0,85,0.00,,---,0.00,VWS V14.01,2013-08-25 05:19:00,
2013-08-25 00:23:00,77.3,72.1,30.11,ENE,67,0.0,1.0,84,0.00,,---,0.00,VWS V14.01,2013-08-25 05:23:00,
2013-08-25 00:24:00,77.3,72.1,30.11,ENE,67,0.0,1.0,84,0.00,,---,0.00,VWS V14.01,2013-08-25 05:24:00,
2013-08-25 00:25:00,77.3,72.1,30.11,ENE,67,0.0,1.0,84,0.00,,---,0.00,VWS V14.01,2013-08-25 05:25:00,
2013-08-25 00:28:00,77.2,72.0,30.11,ENE,67,0.0,1.0,84,0.00,,---,0.00,VWS V14.01,2013-08-25 05:28:00,
2013-08-25 00:29:00,77.2,72.0,30.11,ENE,67,0.0,1.0,84,0.00,,---,0.00,VWS V14.01,2013-08-25 05:29:00,
2013-08-25 00:30:00,77.2,72.0,30.11,ENE,67,0.0,1.0,84,0.00,,---,0.00,VWS V14.01,2013-08-25 05:30:00,
2013-08-25 00:33:00,77.1,71.9,30.11,ENE,67,0.0,0.0,84,0.00,,---,0.00,VWS V14.01,2013-08-25 05:33:00,
2013-08-25 00:34:00,77.1,71.9,30.11,ENE,67,0.0,1.0,84,0.00,,---,0.00,VWS V14.01,2013-08-25 05:34:00,
2013-08-25 00:35:00,77.1,71.9,30.11,ENE,67,0.0,1.0,84,0.00,,---,0.00,VWS V14.01,2013-08-25 05:35:00,
2013-08-25 00:38:00,77.0,72.2,30.11,ENE,67,0.0,1.0,85,0.00,,---,0.00,VWS V14.01,2013-08-25 05:38:00,
2013-08-25 00:39:00,77.0,72.2,30.11,ENE,67,0.0,1.0,85,0.00,,---,0.00,VWS V14.01,2013-08-25 05:39:00,
2013-08-25 00:40:00,77.0,72.2,30.11,ENE,67,0.0,1.0,85,0.00,,---,0.00,VWS V14.01,2013-08-25 05:40:00,
2013-08-25 00:43:00,76.9,72.1,30.11,NE,53,0.0,1.0,85,0.00,,---,0.00,VWS V14.01,2013-08-25 05:43:00,
2013-08-25 00:44:00,76.9,72.1,30.11,NE,53,0.0,1.0,85,0.00,,---,0.00,VWS V14.01,2013-08-25 05:44:00,
2013-08-25 00:45:00,76.9,72.1,30.11,NE,53,0.0,1.0,85,0.00,,---,0.00,VWS V14.01,2013-08-25 05:45:00,
2013-08-25 00:46:00,76.9,72.1,30.11,NE,55,1.0,2.0,85,0.00,,---,0.00,VWS V14.01,2013-08-25 05:46:00,
2013-08-25 00:49:00,76.9,72.1,30.11,NE,55,0.0,0.0,85,0.00,,---,0.00,VWS V14.01,2013-08-25 05:49:00,
2013-08-25 00:50:00,76.8,71.9,30.11,NE,55,0.0,0.0,85,0.00,,---,0.00,VWS V14.01,2013-08-25 05:50:00,
2013-08-25 00:51:00,76.8,71.9,30.11,NE,55,0.0,0.0,85,0.00,,---,0.00,VWS V14.01,2013-08-25 05:51:00,
2013-08-25 00:54:00,76.8,71.9,30.11,WNW,297,0.0,0.0,85,0.00,,---,0.00,VWS V14.01,2013-08-25 05:54:00,
2013-08-25 00:55:00,76.8,71.9,30.11,WNW,297,0.0,0.0,85,0.00,,---,0.00,VWS V14.01,2013-08-25 05:55:00,
2013-08-25 00:56:00,76.8,71.9,30.11,WNW,297,0.0,0.0,85,0.00,,---,0.00,VWS V14.01,2013-08-25 05:56:00,
2013-08-25 00:59:00,76.8,71.9,30.11,WNW,297,0.0,1.0,85,0.00,,---,0.00,VWS V14.01,2013-08-25 05:59:00,
2013-08-25 01:00:00,76.8,71.9,30.11,WNW,297,0.0,1.0,85,0.00,,---,0.00,VWS V14.01,2013-08-25 06:00:00,
2013-08-25 01:01:00,76.8,71.9,30.11,WNW,299,1.0,1.0,85,0.00,,---,0.00,VWS V14.01,2013-08-25 06:01:00,
2013-08-25 01:04:00,76.8,71.9,30.11,WNW,298,0.0,1.0,85,0.00,,---,0.00,VWS V14.01,2013-08-25 06:04:00,
2013-08-25 01:05:00,76.7,71.9,30.11,WNW,299,0.0,1.0,85,0.00,,---,0.00,VWS V14.01,2013-08-25 06:05:00,
2013-08-25 01:06:00,76.7,71.9,30.11,WNW,299,0.0,1.0,85,0.00,,---,0.00,VWS V14.01,2013-08-25 06:06:00,
2013-08-25 01:07:00,76.7,71.9,30.11,WNW,299,0.0,1.0,85,0.00,,---,0.00,VWS V14.01,2013-08-25 06:07:00,
2013-08-25 01:09:00,76.7,71.9,30.11,WNW,298,0.0,1.0,85,0.00,,---,0.00,VWS V14.01,2013-08-25 06:09:00,
2013-08-25 01:10:00,76.7,71.9,30.11,WNW,298,0.0,1.0,85,0.00,,---,0.00,VWS V14.01,2013-08-25 06:10:00,
2013-08-25 01:11:00,76.6,71.8,30.11,WNW,299,0.0,1.0,85,0.00,,---,0.00,VWS V14.01,2013-08-25 06:11:00,
2013-08-25 01:12:00,76.6,71.8,30.11,WNW,298,0.0,1.0,85,0.00,,---,0.00,VWS V14.01,2013-08-25 06:12:00,
2013-08-25 01:14:00,76.6,71.8,30.11,WNW,298,0.0,1.0,85,0.00,,---,0.00,VWS V14.01,2013-08-25 06:14:00,
2013-08-25 01:15:00,76.6,71.8,30.11,WNW,298,0.0,1.0,85,0.00,,---,0.00,VWS V14.01,2013-08-25 06:15:00,
2013-08-25 01:16:00,76.6,71.8,30.11,WNW,299,0.0,1.0,85,0.00,,---,0.00,VWS V14.01,2013-08-25 06:16:00,
2013-08-25 01:17:00,76.6,71.8,30.11,WNW,299,0.0,0.0,85,0.00,,---,0.00,VWS V14.01,2013-08-25 06:17:00,
2013-08-25 01:19:00,76.6,71.8,30.11,WNW,298,0.0,0.0,85,0.00,,---,0.00,VWS V14.01,2013-08-25 06:19:00,
2013-08-25 01:20:00,76.6,71.8,30.11,WNW,298,0.0,0.0,85,0.00,,---,0.00,VWS V14.01,2013-08-25 06:20:00,
2013-08-25 01:21:00,76.6,71.8,30.11,WNW,298,0.0,0.0,85,0.00,,---,0.00,VWS V14.01,2013-08-25 06:21:00,
2013-08-25 01:22:00,76.6,71.8,30.11,WNW,299,0.0,0.0,85,0.00,,---,0.00,VWS V14.01,2013-08-25 06:22:00,
2013-08-25 01:25:00,76.5,71.7,30.11,WNW,298,0.0,0.0,85,0.00,,---,0.00,VWS V14.01,2013-08-25 06:25:00,
2013-08-25 01:26:00,76.6,72.1,30.11,WNW,299,0.0,0.0,86,0.00,,---,0.00,VWS V14.01,2013-08-25 06:26:00,
2013-08-25 01:27:00,76.6,72.1,30.11,WNW,299,0.0,0.0,86,0.00,,---,0.00,VWS V14.01,2013-08-25 06:27:00,
2013-08-25 01:30:00,76.6,71.8,30.11,WNW,298,0.0,0.0,85,0.00,,---,0.00,VWS V14.01,2013-08-25 06:30:00,
2013-08-25 01:31:00,76.6,71.8,30.11,WNW,298,0.0,0.0,85,0.00,,---,0.00,VWS V14.01,2013-08-25 06:31:00,
2013-08-25 01:32:00,76.6,72.1,30.11,WNW,298,0.0,0.0,86,0.00,,---,0.00,VWS V14.01,2013-08-25 06:32:00,
2013-08-25 01:35:00,76.6,71.8,30.11,WNW,298,0.0,0.0,85,0.00,,---,0.00,VWS V14.01,2013-08-25 06:35:00,
2013-08-25 01:36:00,76.6,71.8,30.11,WNW,299,0.0,0.0,85,0.00,,---,0.00,VWS V14.01,2013-08-25 06:36:00,
2013-08-25 01:37:00,76.6,71.8,30.11,WNW,299,0.0,0.0,85,0.00,,---,0.00,VWS V14.01,2013-08-25 06:37:00,
2013-08-25 01:40:00,76.6,72.1,30.11,WNW,298,0.0,1.0,86,0.00,,---,0.00,VWS V14.01,2013-08-25 06:40:00,
2013-08-25 01:41:00,76.6,72.1,30.11,WNW,298,0.0,1.0,86,0.00,,---,0.00,VWS V14.01,2013-08-25 06:41:00,
2013-08-25 01:42:00,76.7,71.9,30.11,WNW,298,0.0,1.0,85,0.00,,---,0.00,VWS V14.01,2013-08-25 06:42:00,
2013-08-25 01:45:00,76.7,71.9,30.11,NW,314,0.0,1.0,85,0.00,,---,0.00,VWS V14.01,2013-08-25 06:45:00,
2013-08-25 01:46:00,76.7,71.9,30.11,NW,314,0.0,1.0,85,0.00,,---,0.00,VWS V14.01,2013-08-25 06:46:00,
2013-08-25 01:47:00,76.7,71.9,30.11,NW,314,0.0,0.0,85,0.00,,---,0.00,VWS V14.01,2013-08-25 06:47:00,
2013-08-25 01:50:00,76.7,71.9,30.11,NW,314,0.0,0.0,85,0.00,,---,0.00,VWS V14.01,2013-08-25 06:50:00,
2013-08-25 01:51:00,76.7,71.9,30.11,NW,314,0.0,0.0,85,0.00,,---,0.00,VWS V14.01,2013-08-25 06:51:00,
2013-08-25 01:52:00,76.7,71.9,30.11,NW,314,0.0,0.0,85,0.00,,---,0.00,VWS V14.01,2013-08-25 06:52:00,
2013-08-25 01:55:00,76.7,71.9,30.11,NW,312,0.0,0.0,85,0.00,,---,0.00,VWS V14.01,2013-08-25 06:55:00,
2013-08-25 01:56:00,76.6,71.8,30.11,NW,313,0.0,0.0,85,0.00,,---,0.00,VWS V14.01,2013-08-25 06:56:00,
2013-08-25 01:57:00,76.6,71.8,30.11,NW,312,0.0,0.0,85,0.00,,---,0.00,VWS V14.01,2013-08-25 06:57:00,
2013-08-25 01:58:00,76.6,71.8,30.11,NW,313,0.0,1.0,85,0.00,,---,0.00,VWS V14.01,2013-08-25 06:58:00,
2013-08-25 02:00:00,76.5,71.7,30.11,NW,313,0.0,1.0,85,0.00,,---,0.00,VWS V14.01,2013-08-25 07:00:00,
2013-08-25 02:01:00,76.5,71.7,30.11,NW,313,0.0,0.0,85,0.00,,---,0.00,VWS V14.01,2013-08-25 07:01:00,
2013-08-25 02:02:00,76.5,71.7,30.11,NW,313,0.0,0.0,85,0.00,,---,0.00,VWS V14.01,2013-08-25 07:02:00,
2013-08-25 02:03:00,76.5,71.7,30.11,NW,313,0.0,0.0,85,0.00,,---,0.00,VWS V14.01,2013-08-25 07:03:00,
2013-08-25 02:06:00,76.4,71.6,30.11,NW,312,0.0,0.0,85,0.00,,---,0.00,VWS V14.01,2013-08-25 07:06:00,
2013-08-25 02:07:00,76.4,71.6,30.11,NW,314,0.0,1.0,85,0.00,,---,0.00,VWS V14.01,2013-08-25 07:07:00,
2013-08-25 02:08:00,76.3,71.5,30.11,NW,314,0.0,1.0,85,0.00,,---,0.00,VWS V14.01,2013-08-25 07:08:00,
2013-08-25 02:11:00,76.3,71.8,30.11,NW,314,0.0,1.0,86,0.00,,---,0.00,VWS V14.01,2013-08-25 07:11:00,
2013-08-25 02:12:00,76.2,71.7,30.11,NW,313,0.0,1.0,86,0.00,,---,0.00,VWS V14.01,2013-08-25 07:12:00,
2013-08-25 02:13:00,76.2,71.7,30.11,NW,313,0.0,1.0,86,0.00,,---,0.00,VWS V14.01,2013-08-25 07:13:00,
2013-08-25 02:16:00,76.2,71.7,30.11,NW,313,0.0,1.0,86,0.00,,---,0.00,VWS V14.01,2013-08-25 07:16:00,
2013-08-25 02:17:00,76.1,71.6,30.11,NW,313,0.0,0.0,86,0.00,,---,0.00,VWS V14.01,2013-08-25 07:17:00,
2013-08-25 02:18:00,76.1,71.6,30.11,NW,313,0.0,1.0,86,0.00,,---,0.00,VWS V14.01,2013-08-25 07:18:00,
2013-08-25 02:21:00,76.0,71.5,30.11,NW,313,0.0,1.0,86,0.00,,---,0.00,VWS V14.01,2013-08-25 07:21:00,
2013-08-25 02:22:00,76.0,71.5,30.11,NW,313,0.0,1.0,86,0.00,,---,0.00,VWS V14.01,2013-08-25 07:22:00,
2013-08-25 02:24:00,75.9,71.4,30.11,NW,312,0.0,1.0,86,0.00,,---,0.00,VWS V14.01,2013-08-25 07:24:00,
2013-08-25 02:26:00,75.9,71.8,30.11,SW,235,0.0,2.0,87,0.00,,---,0.00,VWS V14.01,2013-08-25 07:26:00,
2013-08-25 02:27:00,75.9,71.8,30.12,SW,235,0.0,2.0,87,0.00,,---,0.00,VWS V14.01,2013-08-25 07:27:00,
2013-08-25 02:28:00,75.9,71.8,30.12,SW,235,0.0,2.0,87,0.00,,---,0.00,VWS V14.01,2013-08-25 07:28:00,
2013-08-25 02:29:00,75.9,71.8,30.12,SW,235,0.0,2.0,87,0.00,,---,0.00,VWS V14.01,2013-08-25 07:29:00,
2013-08-25 02:31:00,75.9,71.8,30.12,SW,235,0.0,2.0,87,0.00,,---,0.00,VWS V14.01,2013-08-25 07:31:00,
2013-08-25 02:32:00,75.9,71.8,30.12,SW,235,0.0,0.0,87,0.00,,---,0.00,VWS V14.01,2013-08-25 07:32:00,
2013-08-25 02:33:00,75.9,71.8,30.12,SW,235,0.0,0.0,87,0.00,,---,0.00,VWS V14.01,2013-08-25 07:33:00,
2013-08-25 02:34:00,75.8,71.7,30.11,SW,235,0.0,0.0,87,0.00,,---,0.00,VWS V14.01,2013-08-25 07:34:00,
2013-08-25 02:36:00,75.8,71.7,30.12,SW,235,0.0,0.0,87,0.00,,---,0.00,VWS V14.01,2013-08-25 07:36:00,
2013-08-25 02:38:00,75.8,71.7,30.12,SW,235,0.0,0.0,87,0.00,,---,0.00,VWS V14.01,2013-08-25 07:38:00,
2013-08-25 02:39:00,75.8,71.7,30.11,SW,235,0.0,0.0,87,0.00,,---,0.00,VWS V14.01,2013-08-25 07:39:00,
2013-08-25 02:41:00,75.7,71.6,30.12,SW,235,0.0,0.0,87,0.00,,---,0.00,VWS V14.01,2013-08-25 07:41:00,
2013-08-25 02:43:00,75.7,71.6,30.12,SW,235,0.0,0.0,87,0.00,,---,0.00,VWS V14.01,2013-08-25 07:43:00,
2013-08-25 02:44:00,75.7,71.6,30.12,SW,235,0.0,0.0,87,0.00,,---,0.00,VWS V14.01,2013-08-25 07:44:00,
2013-08-25 02:46:00,75.7,71.6,30.12,SW,235,0.0,0.0,87,0.00,,---,0.00,VWS V14.01,2013-08-25 07:46:00,
2013-08-25 02:48:00,75.7,71.9,30.12,SW,235,0.0,0.0,88,0.00,,---,0.00,VWS V14.01,2013-08-25 07:48:00,
2013-08-25 02:50:00,75.6,71.8,30.12,West,270,0.0,0.0,88,0.00,,---,0.00,VWS V14.01,2013-08-25 07:50:00,
2013-08-25 02:51:00,75.6,71.8,30.12,WNW,283,0.0,0.0,88,0.00,,---,0.00,VWS V14.01,2013-08-25 07:51:00,
2013-08-25 02:53:00,75.5,71.7,30.12,WNW,283,0.0,0.0,88,0.00,,---,0.00,VWS V14.01,2013-08-25 07:53:00,
2013-08-25 02:55:00,75.5,71.7,30.12,WNW,283,0.0,0.0,88,0.00,,---,0.00,VWS V14.01,2013-08-25 07:55:00,
2013-08-25 02:56:00,75.5,71.7,30.12,WNW,283,0.0,0.0,88,0.00,,---,0.00,VWS V14.01,2013-08-25 07:56:00,
2013-08-25 02:58:00,75.5,71.7,30.12,WNW,283,0.0,0.0,88,0.00,,---,0.00,VWS V14.01,2013-08-25 07:58:00,
2013-08-25 03:00:00,75.4,71.6,30.12,WNW,283,0.0,0.0,88,0.00,,---,0.00,VWS V14.01,2013-08-25 08:00:00,
2013-08-25 03:01:00,75.4,71.6,30.12,WNW,283,0.0,0.0,88,0.00,,---,0.00,VWS V14.01,2013-08-25 08:01:00,
2013-08-25 03:03:00,75.4,71.6,30.12,WNW,283,0.0,0.0,88,0.00,,---,0.00,VWS V14.01,2013-08-25 08:03:00,
2013-08-25 03:04:00,75.4,71.6,30.12,WNW,283,0.0,0.0,88,0.00,,---,0.00,VWS V14.01,2013-08-25 08:04:00,
2013-08-25 03:05:00,75.4,71.6,30.12,WNW,283,0.0,0.0,88,0.00,,---,0.00,VWS V14.01,2013-08-25 08:05:00,
2013-08-25 03:07:00,75.4,71.6,30.13,WNW,283,0.0,0.0,88,0.00,,---,0.00,VWS V14.01,2013-08-25 08:07:00,
2013-08-25 03:08:00,75.4,71.9,30.12,WNW,283,0.0,0.0,89,0.00,,---,0.00,VWS V14.01,2013-08-25 08:08:00,
2013-08-25 03:09:00,75.4,71.9,30.13,WNW,283,0.0,0.0,89,0.00,,---,0.00,VWS V14.01,2013-08-25 08:09:00,
2013-08-25 03:10:00,75.3,71.8,30.12,NW,321,0.0,0.0,89,0.00,,---,0.00,VWS V14.01,2013-08-25 08:10:00,
2013-08-25 03:12:00,75.3,71.8,30.12,WNW,295,0.0,0.0,89,0.00,,---,0.00,VWS V14.01,2013-08-25 08:12:00,
2013-08-25 03:13:00,75.3,71.8,30.12,WNW,295,0.0,0.0,89,0.00,,---,0.00,VWS V14.01,2013-08-25 08:13:00,
2013-08-25 03:14:00,75.3,71.8,30.12,WNW,294,0.0,0.0,89,0.00,,---,0.00,VWS V14.01,2013-08-25 08:14:00,
2013-08-25 03:15:00,75.3,71.8,30.12,West,262,0.0,0.0,89,0.00,,---,0.00,VWS V14.01,2013-08-25 08:15:00,
2013-08-25 03:17:00,75.3,71.8,30.13,NW,314,0.0,1.0,89,0.00,,---,0.00,VWS V14.01,2013-08-25 08:17:00,
2013-08-25 03:18:00,75.4,71.9,30.12,NW,314,0.0,1.0,89,0.00,,---,0.00,VWS V14.01,2013-08-25 08:18:00,
2013-08-25 03:19:00,75.4,71.9,30.12,North,356,0.0,1.0,89,0.00,,---,0.00,VWS V14.01,2013-08-25 08:19:00,
2013-08-25 03:20:00,75.4,71.9,30.13,North,354,0.0,1.0,89,0.00,,---,0.00,VWS V14.01,2013-08-25 08:20:00,
2013-08-25 03:23:00,75.4,71.9,30.13,North,350,0.0,1.0,89,0.00,,---,0.00,VWS V14.01,2013-08-25 08:23:00,
2013-08-25 03:24:00,75.4,71.9,30.13,North,350,0.0,1.0,89,0.00,,---,0.00,VWS V14.01,2013-08-25 08:24:00,
2013-08-25 03:26:00,75.4,71.9,30.13,North,349,0.0,1.0,89,0.00,,---,0.00,VWS V14.01,2013-08-25 08:26:00,
2013-08-25 03:28:00,75.4,71.9,30.13,North,349,0.0,1.0,89,0.00,,---,0.00,VWS V14.01,2013-08-25 08:28:00,
2013-08-25 03:29:00,75.4,71.9,30.13,North,349,0.0,1.0,89,0.00,,---,0.00,VWS V14.01,2013-08-25 08:29:00,
2013-08-25 03:30:00,75.4,71.9,30.13,North,349,0.0,1.0,89,0.00,,---,0.00,VWS V14.01,2013-08-25 08:30:00,
2013-08-25 03:31:00,75.4,71.9,30.13,NW,318,0.0,1.0,89,0.00,,---,0.00,VWS V14.01,2013-08-25 08:31:00,
2013-08-25 03:33:00,75.4,71.9,30.13,NW,318,0.0,0.0,89,0.00,,---,0.00,VWS V14.01,2013-08-25 08:33:00,
2013-08-25 03:34:00,75.4,71.9,30.13,NW,318,0.0,0.0,89,0.00,,---,0.00,VWS V14.01,2013-08-25 08:34:00,
2013-08-25 03:35:00,75.4,71.9,30.13,NW,318,0.0,0.0,89,0.00,,---,0.00,VWS V14.01,2013-08-25 08:35:00,
2013-08-25 03:36:00,75.4,72.3,30.13,West,267,0.0,1.0,90,0.00,,---,0.00,VWS V14.01,2013-08-25 08:36:00,
2013-08-25 03:39:00,75.4,72.3,30.13,West,268,0.0,1.0,90,0.00,,---,0.00,VWS V14.01,2013-08-25 08:39:00,
2013-08-25 03:40:00,75.4,72.3,30.13,West,268,0.0,1.0,90,0.00,,---,0.00,VWS V14.01,2013-08-25 08:40:00,
2013-08-25 03:41:00,75.4,72.3,30.13,West,268,0.0,1.0,90,0.00,,---,0.00,VWS V14.01,2013-08-25 08:41:00,
2013-08-25 03:44:00,75.3,72.2,30.13,West,267,0.0,1.0,90,0.00,,---,0.00,VWS V14.01,2013-08-25 08:44:00,
2013-08-25 03:45:00,75.3,72.2,30.13,West,268,0.0,1.0,90,0.00,,---,0.00,VWS V14.01,2013-08-25 08:45:00,
2013-08-25 03:47:00,75.3,72.2,30.13,West,267,0.0,0.0,90,0.00,,---,0.00,VWS V14.01,2013-08-25 08:47:00,
2013-08-25 03:49:00,75.2,72.1,30.13,West,267,0.0,0.0,90,0.00,,---,0.00,VWS V14.01,2013-08-25 08:49:00,
2013-08-25 03:50:00,75.2,72.1,30.13,West,268,0.0,0.0,90,0.00,,---,0.00,VWS V14.01,2013-08-25 08:50:00,
2013-08-25 03:52:00,75.2,72.1,30.13,West,268,0.0,0.0,90,0.00,,---,0.00,VWS V14.01,2013-08-25 08:52:00,
2013-08-25 03:54:00,75.1,72.0,30.14,West,267,0.0,0.0,90,0.00,,---,0.00,VWS V14.01,2013-08-25 08:54:00,
2013-08-25 03:55:00,75.1,72.0,30.14,West,270,0.0,1.0,90,0.00,,---,0.00,VWS V14.01,2013-08-25 08:55:00,
2013-08-25 03:57:00,75.1,72.0,30.14,West,272,0.0,1.0,90,0.00,,---,0.00,VWS V14.01,2013-08-25 08:57:00,
2013-08-25 03:59:00,75.1,72.0,30.14,West,271,0.0,1.0,90,0.00,,---,0.00,VWS V14.01,2013-08-25 08:59:00,
2013-08-25 04:00:00,75.1,72.0,30.14,West,272,0.0,1.0,90,0.00,,---,0.00,VWS V14.01,2013-08-25 09:00:00,
2013-08-25 04:02:00,75.1,72.0,30.14,West,271,0.0,1.0,90,0.00,,---,0.00,VWS V14.01,2013-08-25 09:02:00,
2013-08-25 04:04:00,75.1,72.0,30.14,West,271,0.0,1.0,90,0.00,,---,0.00,VWS V14.01,2013-08-25 09:04:00,
2013-08-25 04:05:00,75.1,72.0,30.14,West,271,0.0,1.0,90,0.00,,---,0.00,VWS V14.01,2013-08-25 09:05:00,
2013-08-25 04:06:00,75.1,72.0,30.14,West,273,0.0,1.0,90,0.00,,---,0.00,VWS V14.01,2013-08-25 09:06:00,
2013-08-25 04:07:00,75.1,72.0,30.14,West,273,0.0,1.0,90,0.00,,---,0.00,VWS V14.01,2013-08-25 09:07:00,
2013-08-25 04:09:00,75.1,72.0,30.14,NNW,346,2.0,3.0,90,0.00,,---,0.00,VWS V14.01,2013-08-25 09:09:00,
2013-08-25 04:10:00,75.1,72.0,30.14,NNW,346,0.0,3.0,90,0.00,,---,0.00,VWS V14.01,2013-08-25 09:10:00,
2013-08-25 04:11:00,75.1,72.0,30.14,NNW,346,0.0,3.0,90,0.00,,---,0.00,VWS V14.01,2013-08-25 09:11:00,
2013-08-25 04:13:00,75.0,71.9,30.14,NNW,346,0.0,3.0,90,0.00,,---,0.00,VWS V14.01,2013-08-25 09:13:00,
2013-08-25 04:14:00,75.0,71.9,30.14,NNW,346,0.0,3.0,90,0.00,,---,0.00,VWS V14.01,2013-08-25 09:14:00,
2013-08-25 04:15:00,75.0,71.9,30.14,NNW,346,0.0,3.0,90,0.00,,---,0.00,VWS V14.01,2013-08-25 09:15:00,
2013-08-25 04:16:00,75.0,71.9,30.14,NNW,346,0.0,3.0,90,0.00,,---,0.00,VWS V14.01,2013-08-25 09:16:00,
2013-08-25 04:18:00,75.0,72.2,30.14,NW,322,0.0,1.0,91,0.00,,---,0.00,VWS V14.01,2013-08-25 09:18:00,
2013-08-25 04:19:00,75.0,71.9,30.14,NW,323,0.0,1.0,90,0.00,,---,0.00,VWS V14.01,2013-08-25 09:19:00,
2013-08-25 04:20:00,74.9,72.1,30.14,NW,323,0.0,1.0,91,0.00,,---,0.00,VWS V14.01,2013-08-25 09:20:00,
2013-08-25 04:21:00,74.9,72.1,30.14,NW,323,0.0,1.0,91,0.00,,---,0.00,VWS V14.01,2013-08-25 09:21:00,
2013-08-25 04:23:00,74.9,72.1,30.14,WSW,247,1.0,1.0,91,0.00,,---,0.00,VWS V14.01,2013-08-25 09:23:00,
2013-08-25 04:25:00,74.9,72.1,30.14,WSW,247,0.0,1.0,91,0.00,,---,0.00,VWS V14.01,2013-08-25 09:25:00,
2013-08-25 04:26:00,74.9,72.1,30.14,WSW,247,0.0,1.0,91,0.00,,---,0.00,VWS V14.01,2013-08-25 09:26:00,
2013-08-25 04:27:00,74.8,72.0,30.14,WSW,247,0.0,1.0,91,0.00,,---,0.00,VWS V14.01,2013-08-25 09:27:00,
2013-08-25 04:28:00,74.8,72.0,30.14,WSW,248,0.0,1.0,91,0.00,,---,0.00,VWS V14.01,2013-08-25 09:28:00,
2013-08-25 04:30:00,74.8,72.0,30.14,WSW,247,0.0,1.0,91,0.00,,---,0.00,VWS V14.01,2013-08-25 09:30:00,
2013-08-25 04:31:00,74.8,72.0,30.14,WSW,247,0.0,0.0,91,0.00,,---,0.00,VWS V14.01,2013-08-25 09:31:00,
2013-08-25 04:32:00,74.8,72.0,30.14,NW,305,1.0,1.0,91,0.00,,---,0.00,VWS V14.01,2013-08-25 09:32:00,
2013-08-25 04:33:00,74.8,72.0,30.14,NW,306,0.0,1.0,91,0.00,,---,0.00,VWS V14.01,2013-08-25 09:33:00,
2013-08-25 04:35:00,74.7,71.9,30.14,NW,305,0.0,1.0,91,0.00,,---,0.00,VWS V14.01,2013-08-25 09:35:00,
2013-08-25 04:36:00,74.7,71.9,30.14,NW,305,0.0,1.0,91,0.00,,---,0.00,VWS V14.01,2013-08-25 09:36:00,
2013-08-25 04:37:00,74.7,71.9,30.15,NW,305,0.0,1.0,91,0.00,,---,0.00,VWS V14.01,2013-08-25 09:37:00,
2013-08-25 04:39:00,74.7,71.9,30.15,NW,304,0.0,1.0,91,0.00,,---,0.00,VWS V14.01,2013-08-25 09:39:00,
2013-08-25 04:40:00,74.7,71.9,30.14,NW,304,0.0,1.0,91,0.00,,---,0.00,VWS V14.01,2013-08-25 09:40:00,
2013-08-25 04:41:00,74.7,72.2,30.14,NW,304,0.0,1.0,92,0.00,,---,0.00,VWS V14.01,2013-08-25 09:41:00,
2013-08-25 04:42:00,74.7,72.2,30.15,NW,304,0.0,1.0,92,0.00,,---,0.00,VWS V14.01,2013-08-25 09:42:00,
2013-08-25 04:44:00,74.6,72.1,30.14,NW,304,0.0,1.0,92,0.00,,---,0.00,VWS V14.01,2013-08-25 09:44:00,
2013-08-25 04:45:00,74.6,72.1,30.15,NW,304,0.0,1.0,92,0.00,,---,0.00,VWS V14.01,2013-08-25 09:45:00,
2013-08-25 04:46:00,74.6,72.1,30.15,NW,304,0.0,0.0,92,0.00,,---,0.00,VWS V14.01,2013-08-25 09:46:00,
2013-08-25 04:47:00,74.6,72.1,30.15,NW,304,0.0,0.0,92,0.00,,---,0.00,VWS V14.01,2013-08-25 09:47:00,
2013-08-25 04:49:00,74.6,72.1,30.15,NW,304,0.0,0.0,92,0.00,,---,0.00,VWS V14.01,2013-08-25 09:49:00,
2013-08-25 04:50:00,74.6,72.1,30.15,NW,304,0.0,0.0,92,0.00,,---,0.00,VWS V14.01,2013-08-25 09:50:00,
2013-08-25 04:52:00,74.6,72.1,30.15,NW,326,0.0,0.0,92,0.00,,---,0.00,VWS V14.01,2013-08-25 09:52:00,
2013-08-25 04:54:00,74.6,72.1,30.15,NW,321,0.0,0.0,92,0.00,,---,0.00,VWS V14.01,2013-08-25 09:54:00,
2013-08-25 04:55:00,74.6,72.1,30.15,NW,321,0.0,0.0,92,0.00,,---,0.00,VWS V14.01,2013-08-25 09:55:00,
2013-08-25 04:57:00,74.5,72.0,30.15,WNW,302,0.0,0.0,92,0.00,,---,0.00,VWS V14.01,2013-08-25 09:57:00,
2013-08-25 04:59:00,74.5,72.0,30.15,WNW,302,0.0,0.0,92,0.00,,---,0.00,VWS V14.01,2013-08-25 09:59:00,
2013-08-25 05:00:00,74.5,72.0,30.15,WNW,302,0.0,0.0,92,0.00,,---,0.00,VWS V14.01,2013-08-25 10:00:00,
2013-08-25 05:02:00,74.5,72.0,30.15,WNW,301,0.0,0.0,92,0.00,,---,0.00,VWS V14.01,2013-08-25 10:02:00,
2013-08-25 05:04:00,74.4,71.9,30.15,WNW,301,0.0,0.0,92,0.00,,---,0.00,VWS V14.01,2013-08-25 10:04:00,
2013-08-25 05:05:00,74.4,71.9,30.15,WNW,301,0.0,0.0,92,0.00,,---,0.00,VWS V14.01,2013-08-25 10:05:00,
2013-08-25 05:07:00,74.4,71.9,30.15,WNW,301,0.0,0.0,92,0.00,,---,0.00,VWS V14.01,2013-08-25 10:07:00,
2013-08-25 05:08:00,74.4,71.9,30.15,WNW,301,0.0,0.0,92,0.00,,---,0.00,VWS V14.01,2013-08-25 10:08:00,
2013-08-25 05:10:00,74.4,71.9,30.15,WNW,301,0.0,0.0,92,0.00,,---,0.00,VWS V14.01,2013-08-25 10:10:00,
2013-08-25 05:11:00,74.4,71.9,30.15,WNW,301,0.0,0.0,92,0.00,,---,0.00,VWS V14.01,2013-08-25 10:11:00,
2013-08-25 05:12:00,74.3,71.8,30.15,WNW,301,0.0,0.0,92,0.00,,---,0.00,VWS V14.01,2013-08-25 10:12:00,
2013-08-25 05:13:00,74.3,71.8,30.15,WNW,302,0.0,0.0,92,0.00,,---,0.00,VWS V14.01,2013-08-25 10:13:00,
2013-08-25 05:15:00,74.3,72.2,30.15,WNW,301,0.0,1.0,93,0.00,,---,0.00,VWS V14.01,2013-08-25 10:15:00,
2013-08-25 05:16:00,74.2,72.1,30.15,WNW,301,0.0,1.0,93,0.00,,---,0.00,VWS V14.01,2013-08-25 10:16:00,
2013-08-25 05:17:00,74.2,72.1,30.15,WNW,302,0.0,0.0,93,0.00,,---,0.00,VWS V14.01,2013-08-25 10:17:00,
2013-08-25 05:18:00,74.2,72.1,30.15,WNW,301,1.0,1.0,93,0.00,,---,0.00,VWS V14.01,2013-08-25 10:18:00,
2013-08-25 05:20:00,74.2,72.1,30.15,WNW,301,0.0,1.0,93,0.00,,---,0.00,VWS V14.01,2013-08-25 10:20:00,
2013-08-25 05:21:00,74.2,72.1,30.16,WNW,301,0.0,1.0,93,0.00,,---,0.00,VWS V14.01,2013-08-25 10:21:00,
2013-08-25 05:22:00,74.2,72.1,30.16,WNW,301,0.0,1.0,93,0.00,,---,0.00,VWS V14.01,2013-08-25 10:22:00,
2013-08-25 05:23:00,74.2,72.1,30.16,WNW,301,0.0,1.0,93,0.00,,---,0.00,VWS V14.01,2013-08-25 10:23:00,
2013-08-25 05:25:00,74.1,71.9,30.16,WNW,302,0.0,1.0,93,0.00,,---,0.00,VWS V14.01,2013-08-25 10:25:00,
2013-08-25 05:26:00,74.1,71.9,30.16,WNW,301,0.0,1.0,93,0.00,,---,0.00,VWS V14.01,2013-08-25 10:26:00,
2013-08-25 05:28:00,74.1,71.9,30.16,WNW,301,0.0,1.0,93,0.00,,---,0.00,VWS V14.01,2013-08-25 10:28:00,
2013-08-25 05:30:00,74.0,71.8,30.16,WNW,301,0.0,1.0,93,0.00,,---,0.00,VWS V14.01,2013-08-25 10:30:00,
2013-08-25 05:32:00,74.0,71.8,30.16,WNW,301,0.0,0.0,93,0.00,,---,0.00,VWS V14.01,2013-08-25 10:32:00,
2013-08-25 05:33:00,74.0,71.8,30.16,WNW,301,0.0,1.0,93,0.00,,---,0.00,VWS V14.01,2013-08-25 10:33:00,
2013-08-25 05:35:00,74.0,71.8,30.16,WNW,301,0.0,1.0,93,0.00,,---,0.00,VWS V14.01,2013-08-25 10:35:00,
2013-08-25 05:37:00,74.0,71.8,30.16,WNW,301,0.0,1.0,93,0.00,,---,0.00,VWS V14.01,2013-08-25 10:37:00,
2013-08-25 05:38:00,73.9,71.8,30.16,WNW,301,0.0,1.0,93,0.00,,---,0.00,VWS V14.01,2013-08-25 10:38:00,
2013-08-25 05:40:00,73.9,72.1,30.16,WNW,300,0.0,1.0,94,0.00,,---,0.00,VWS V14.01,2013-08-25 10:40:00,
2013-08-25 05:42:00,73.9,72.1,30.16,WNW,300,0.0,1.0,94,0.00,,---,0.00,VWS V14.01,2013-08-25 10:42:00,
2013-08-25 05:43:00,73.9,72.1,30.16,WNW,300,0.0,1.0,94,0.00,,---,0.00,VWS V14.01,2013-08-25 10:43:00,
2013-08-25 05:45:00,73.9,72.1,30.17,WSW,237,0.0,2.0,94,0.00,,---,0.00,VWS V14.01,2013-08-25 10:45:00,
2013-08-25 05:47:00,73.9,72.1,30.17,SW,236,0.0,0.0,94,0.00,,---,0.00,VWS V14.01,2013-08-25 10:47:00,
2013-08-25 05:48:00,73.8,72.0,30.17,SW,236,0.0,0.0,94,0.00,,---,0.00,VWS V14.01,2013-08-25 10:48:00,
2013-08-25 05:49:00,73.8,72.0,30.17,SW,236,0.0,0.0,94,0.00,,---,0.00,VWS V14.01,2013-08-25 10:49:00,
2013-08-25 05:50:00,73.8,72.0,30.17,WSW,237,0.0,0.0,94,0.00,,---,0.00,VWS V14.01,2013-08-25 10:50:00,
2013-08-25 05:52:00,73.8,72.0,30.17,WSW,237,0.0,1.0,94,0.00,,---,0.00,VWS V14.01,2013-08-25 10:52:00,
2013-08-25 05:53:00,73.8,72.0,30.17,WSW,237,0.0,1.0,94,0.00,,---,0.00,VWS V14.01,2013-08-25 10:53:00,
2013-08-25 05:54:00,73.8,72.0,30.17,WSW,254,0.0,1.0,94,0.00,,---,0.00,VWS V14.01,2013-08-25 10:54:00,
2013-08-25 05:56:00,73.7,71.9,30.17,WSW,254,0.0,0.0,94,0.00,,---,0.00,VWS V14.01,2013-08-25 10:56:00,
2013-08-25 05:58:00,73.7,71.9,30.17,WSW,254,0.0,0.0,94,0.00,,---,0.00,VWS V14.01,2013-08-25 10:58:00,
2013-08-25 05:59:00,73.7,71.9,30.17,WSW,254,0.0,0.0,94,0.00,,---,0.00,VWS V14.01,2013-08-25 10:59:00,
2013-08-25 06:02:00,73.7,71.9,30.17,WSW,254,0.0,0.0,94,0.00,,---,0.00,VWS V14.01,2013-08-25 11:02:00,
2013-08-25 06:03:00,73.7,71.9,30.17,WSW,254,0.0,0.0,94,0.00,,---,0.00,VWS V14.01,2013-08-25 11:03:00,
2013-08-25 06:04:00,73.7,71.9,30.17,WSW,254,0.0,0.0,94,0.00,,---,0.00,VWS V14.01,2013-08-25 11:04:00,
2013-08-25 06:07:00,73.7,71.9,30.17,SSW,209,0.0,5.0,94,0.00,,---,0.00,VWS V14.01,2013-08-25 11:07:00,
2013-08-25 06:08:00,73.7,72.0,30.18,SSW,209,0.0,5.0,94,0.00,,,0.00,weatherlink.com 1.10,2013-08-25 11:08:00,
2013-08-25 06:09:00,73.7,71.9,30.18,WSW,253,0.0,5.0,94,0.00,,---,0.00,VWS V14.01,2013-08-25 11:09:00,
2013-08-25 06:12:00,73.7,71.9,30.18,WSW,253,0.0,5.0,94,0.00,,---,0.00,VWS V14.01,2013-08-25 11:12:00,
2013-08-25 06:13:00,73.8,72.0,30.18,WNW,296,0.0,5.0,94,0.00,,---,0.00,VWS V14.01,2013-08-25 11:13:00,
2013-08-25 06:14:00,73.8,72.0,30.18,WNW,295,0.0,5.0,94,0.00,,---,0.00,VWS V14.01,2013-08-25 11:14:00,
2013-08-25 06:17:00,73.8,72.0,30.18,WNW,298,0.0,1.0,94,0.00,,---,0.00,VWS V14.01,2013-08-25 11:17:00,
2013-08-25 06:18:00,73.8,72.0,30.18,WNW,285,0.0,2.0,94,0.00,,---,0.00,VWS V14.01,2013-08-25 11:18:00,
2013-08-25 06:19:00,73.8,72.0,30.18,WNW,285,0.0,2.0,94,0.00,,---,0.00,VWS V14.01,2013-08-25 11:19:00,
2013-08-25 06:20:00,73.8,72.0,30.18,WNW,285,0.0,2.0,94,0.00,,---,0.00,VWS V14.01,2013-08-25 11:20:00,
2013-08-25 06:22:00,73.8,72.0,30.18,WNW,285,1.0,2.0,94,0.00,,---,0.00,VWS V14.01,2013-08-25 11:22:00,
2013-08-25 06:24:00,73.8,72.0,30.18,WNW,286,0.0,2.0,94,0.00,,---,0.00,VWS V14.01,2013-08-25 11:24:00,
2013-08-25 06:25:00,73.8,72.0,30.18,WNW,285,0.0,2.0,94,0.00,,---,0.00,VWS V14.01,2013-08-25 11:25:00,
2013-08-25 06:27:00,73.8,72.0,30.18,WNW,285,0.0,2.0,94,0.00,,---,0.00,VWS V14.01,2013-08-25 11:27:00,
2013-08-25 06:29:00,73.8,72.0,30.18,WNW,285,0.0,2.0,94,0.00,,---,0.00,VWS V14.01,2013-08-25 11:29:00,
2013-08-25 06:30:00,73.8,72.0,30.18,WNW,285,0.0,2.0,94,0.00,,---,0.00,VWS V14.01,2013-08-25 11:30:00,
2013-08-25 06:33:00,73.7,71.9,30.18,WNW,286,0.0,0.0,94,0.00,,---,0.00,VWS V14.01,2013-08-25 11:33:00,
2013-08-25 06:34:00,73.7,71.9,30.18,WNW,284,0.0,0.0,94,0.00,,---,0.00,VWS V14.01,2013-08-25 11:34:00,
2013-08-25 06:35:00,73.7,71.9,30.18,West,262,0.0,0.0,94,0.00,,---,0.00,VWS V14.01,2013-08-25 11:35:00,
2013-08-25 06:38:00,73.7,71.9,30.18,West,262,0.0,0.0,94,0.00,,---,0.00,VWS V14.01,2013-08-25 11:38:00,
2013-08-25 06:39:00,73.7,71.9,30.18,West,262,0.0,0.0,94,0.00,,---,0.00,VWS V14.01,2013-08-25 11:39:00,
2013-08-25 06:40:00,73.7,71.9,30.18,West,262,0.0,0.0,94,0.00,,---,0.00,VWS V14.01,2013-08-25 11:40:00,
2013-08-25 06:43:00,73.7,71.9,30.18,NW,311,0.0,2.0,94,0.00,,---,0.00,VWS V14.01,2013-08-25 11:43:00,
2013-08-25 06:45:00,73.7,71.9,30.18,NW,311,0.0,2.0,94,0.00,,---,0.00,VWS V14.01,2013-08-25 11:45:00,
2013-08-25 06:49:00,73.7,71.9,30.19,NNW,337,0.0,1.0,94,0.00,,---,0.00,VWS V14.01,2013-08-25 11:49:00,
2013-08-25 06:50:00,73.7,71.9,30.19,NNW,337,0.0,1.0,94,0.00,,---,0.00,VWS V14.01,2013-08-25 11:50:00,
2013-08-25 06:51:00,73.7,71.9,30.19,NNW,337,0.0,1.0,94,0.00,,---,0.00,VWS V14.01,2013-08-25 11:51:00,
2013-08-25 06:54:00,73.7,71.9,30.19,NNW,337,0.0,1.0,94,0.00,,---,0.00,VWS V14.01,2013-08-25 11:54:00,
2013-08-25 06:55:00,73.7,71.9,30.19,NNW,337,0.0,1.0,94,0.00,,---,0.00,VWS V14.01,2013-08-25 11:55:00,
2013-08-25 06:56:00,73.7,71.9,30.19,NNW,337,0.0,1.0,94,0.00,,---,0.00,VWS V14.01,2013-08-25 11:56:00,
2013-08-25 06:59:00,73.8,72.0,30.19,NW,305,0.0,1.0,94,0.00,,---,0.00,VWS V14.01,2013-08-25 11:59:00,
2013-08-25 07:00:00,73.8,72.0,30.19,NW,306,0.0,1.0,94,0.00,,---,0.00,VWS V14.01,2013-08-25 12:00:00,
2013-08-25 07:01:00,73.8,72.0,30.19,NW,305,0.0,1.0,94,0.00,,---,0.00,VWS V14.01,2013-08-25 12:01:00,
2013-08-25 07:05:00,73.9,72.1,30.19,WNW,300,0.0,1.0,94,0.00,,---,0.00,VWS V14.01,2013-08-25 12:05:00,
2013-08-25 07:06:00,73.9,72.1,30.19,WNW,299,0.0,1.0,94,0.00,,---,0.00,VWS V14.01,2013-08-25 12:06:00,
2013-08-25 07:10:00,74.0,72.2,30.19,West,261,0.0,2.0,94,0.00,,---,0.00,VWS V14.01,2013-08-25 12:10:00,
2013-08-25 07:11:00,74.0,72.2,30.19,West,261,0.0,2.0,94,0.00,,---,0.00,VWS V14.01,2013-08-25 12:11:00,
2013-08-25 07:12:00,74.0,72.2,30.19,NW,304,1.0,2.0,94,0.00,,---,0.00,VWS V14.01,2013-08-25 12:12:00,
2013-08-25 07:15:00,74.0,72.2,30.19,WNW,302,0.0,2.0,94,0.00,,---,0.00,VWS V14.01,2013-08-25 12:15:00,
2013-08-25 07:16:00,74.0,72.2,30.20,WNW,302,0.0,2.0,94,0.00,,---,0.00,VWS V14.01,2013-08-25 12:16:00,
2013-08-25 07:17:00,74.1,72.3,30.20,WNW,302,0.0,0.0,94,0.00,,---,0.00,VWS V14.01,2013-08-25 12:17:00,
2013-08-25 07:20:00,74.1,72.3,30.20,WNW,302,0.0,0.0,94,0.00,,---,0.00,VWS V14.01,2013-08-25 12:20:00,
2013-08-25 07:21:00,74.2,72.4,30.20,WNW,302,0.0,0.0,94,0.00,,---,0.00,VWS V14.01,2013-08-25 12:21:00,
2013-08-25 07:22:00,74.2,72.4,30.20,WNW,302,0.0,1.0,94,0.00,,---,0.00,VWS V14.01,2013-08-25 12:22:00,
2013-08-25 07:25:00,74.3,72.5,30.20,West,278,1.0,2.0,94,0.00,,---,0.00,VWS V14.01,2013-08-25 12:25:00,
2013-08-25 07:26:00,74.3,72.5,30.20,West,278,0.0,2.0,94,0.00,,---,0.00,VWS V14.01,2013-08-25 12:26:00,
2013-08-25 07:27:00,74.3,72.5,30.20,NW,316,1.0,2.0,94,0.00,,---,0.00,VWS V14.01,2013-08-25 12:27:00,
2013-08-25 07:30:00,74.4,72.2,30.20,NW,316,1.0,2.0,93,0.00,,---,0.00,VWS V14.01,2013-08-25 12:30:00,
2013-08-25 07:31:00,74.5,72.3,30.20,NW,317,0.0,2.0,93,0.00,,---,0.00,VWS V14.01,2013-08-25 12:31:00,
2013-08-25 07:33:00,74.5,72.3,30.20,WSW,245,1.0,2.0,93,0.00,,---,0.00,VWS V14.01,2013-08-25 12:33:00,
2013-08-25 07:35:00,74.7,72.6,30.20,SW,235,1.0,2.0,93,0.00,,---,0.00,VWS V14.01,2013-08-25 12:35:00,
2013-08-25 07:36:00,74.7,72.6,30.20,WNW,299,1.0,2.0,93,0.00,,---,0.00,VWS V14.01,2013-08-25 12:36:00,
2013-08-25 07:37:00,74.7,72.6,30.20,NW,308,1.0,2.0,93,0.00,,---,0.00,VWS V14.01,2013-08-25 12:37:00,
2013-08-25 07:38:00,74.8,72.6,30.20,WSW,251,0.0,2.0,93,0.00,,---,0.00,VWS V14.01,2013-08-25 12:38:00,
2013-08-25 07:40:00,74.8,72.6,30.20,WSW,240,1.0,5.0,93,0.00,,---,0.00,VWS V14.01,2013-08-25 12:40:00,
2013-08-25 07:41:00,74.9,72.7,30.20,WSW,240,0.0,5.0,93,0.00,,---,0.00,VWS V14.01,2013-08-25 12:41:00,
2013-08-25 07:42:00,74.9,72.7,30.20,WSW,237,3.0,5.0,93,0.00,,---,0.00,VWS V14.01,2013-08-25 12:42:00,
2013-08-25 07:43:00,74.9,72.7,30.20,WSW,240,0.0,5.0,93,0.00,,---,0.00,VWS V14.01,2013-08-25 12:43:00,
2013-08-25 07:45:00,74.9,72.7,30.20,WSW,240,1.0,5.0,93,0.00,,---,0.00,VWS V14.01,2013-08-25 12:45:00,
2013-08-25 07:46:00,75.0,72.8,30.20,WSW,250,0.0,0.0,93,0.00,,---,0.00,VWS V14.01,2013-08-25 12:46:00,
2013-08-25 07:47:00,75.0,72.8,30.20,WSW,247,0.0,0.0,93,0.00,,---,0.00,VWS V14.01,2013-08-25 12:47:00,
2013-08-25 07:48:00,75.0,72.8,30.20,WSW,249,0.0,1.0,93,0.00,,---,0.00,VWS V14.01,2013-08-25 12:48:00,
2013-08-25 07:51:00,75.1,72.9,30.20,WSW,238,0.0,2.0,93,0.00,,---,0.00,VWS V14.01,2013-08-25 12:51:00,
2013-08-25 07:52:00,75.1,72.9,30.20,WSW,238,0.0,2.0,93,0.00,,---,0.00,VWS V14.01,2013-08-25 12:52:00,
2013-08-25 07:54:00,75.1,72.9,30.20,SSW,206,0.0,3.0,93,0.00,,---,0.00,VWS V14.01,2013-08-25 12:54:00,
2013-08-25 07:56:00,75.2,73.0,30.20,WNW,283,1.0,3.0,93,0.00,,---,0.00,VWS V14.01,2013-08-25 12:56:00,
2013-08-25 07:57:00,75.2,73.0,30.20,WNW,283,1.0,3.0,93,0.00,,---,0.00,VWS V14.01,2013-08-25 12:57:00,
2013-08-25 07:59:00,75.3,73.1,30.20,WNW,283,0.0,3.0,93,0.00,,---,0.00,VWS V14.01,2013-08-25 12:59:00,
2013-08-25 08:01:00,75.3,72.8,30.20,WNW,295,0.0,3.0,92,0.00,,---,0.00,VWS V14.01,2013-08-25 13:01:00,
2013-08-25 08:02:00,75.3,72.8,30.20,ENE,66,1.0,1.0,92,0.00,,---,0.00,VWS V14.01,2013-08-25 13:02:00,
2013-08-25 08:04:00,75.3,72.8,30.21,West,262,1.0,2.0,92,0.00,,---,0.00,VWS V14.01,2013-08-25 13:04:00,
2013-08-25 08:06:00,75.4,72.9,30.20,West,266,0.0,2.0,92,0.00,,---,0.00,VWS V14.01,2013-08-25 13:06:00,
2013-08-25 08:07:00,75.4,72.9,30.20,SSW,212,2.0,2.0,92,0.00,,---,0.00,VWS V14.01,2013-08-25 13:07:00,
2013-08-25 08:08:00,75.4,72.9,30.21,SSW,213,0.0,2.0,92,0.00,,---,0.00,VWS V14.01,2013-08-25 13:08:00,
2013-08-25 08:09:00,75.5,73.0,30.21,WSW,252,1.0,2.0,92,0.00,,---,0.00,VWS V14.01,2013-08-25 13:09:00,
2013-08-25 08:11:00,75.5,73.0,30.20,West,268,1.0,2.0,92,0.00,,---,0.00,VWS V14.01,2013-08-25 13:11:00,
2013-08-25 08:12:00,75.6,73.1,30.20,West,267,1.0,2.0,92,0.00,,---,0.00,VWS V14.01,2013-08-25 13:12:00,
2013-08-25 08:13:00,75.6,73.1,30.21,WNW,287,1.0,2.0,92,0.00,,---,0.00,VWS V14.01,2013-08-25 13:13:00,
2013-08-25 08:14:00,75.6,73.1,30.21,West,280,1.0,4.0,92,0.00,,---,0.00,VWS V14.01,2013-08-25 13:14:00,
2013-08-25 08:17:00,75.7,73.2,30.20,WSW,250,1.0,2.0,92,0.00,,---,0.00,VWS V14.01,2013-08-25 13:17:00,
2013-08-25 08:18:00,75.8,73.3,30.21,WSW,251,0.0,2.0,92,0.00,,---,0.00,VWS V14.01,2013-08-25 13:18:00,
2013-08-25 08:19:00,75.8,73.3,30.20,NNW,330,0.0,2.0,92,0.00,,---,0.00,VWS V14.01,2013-08-25 13:19:00,
2013-08-25 08:22:00,76.0,73.2,30.20,WSW,247,1.0,2.0,91,0.00,,---,0.00,VWS V14.01,2013-08-25 13:22:00,
2013-08-25 08:23:00,76.1,73.3,30.21,West,269,1.0,2.0,91,0.00,,---,0.00,VWS V14.01,2013-08-25 13:23:00,
2013-08-25 08:24:00,76.1,73.3,30.21,NW,304,1.0,2.0,91,0.00,,---,0.00,VWS V14.01,2013-08-25 13:24:00,
2013-08-25 08:27:00,76.2,73.4,30.21,NW,312,1.0,2.0,91,0.00,,---,0.00,VWS V14.01,2013-08-25 13:27:00,
2013-08-25 08:28:00,76.3,73.5,30.21,West,274,1.0,2.0,91,0.00,,---,0.00,VWS V14.01,2013-08-25 13:28:00,
2013-08-25 08:29:00,76.3,73.5,30.21,SW,233,1.0,3.0,91,0.00,,---,0.00,VWS V14.01,2013-08-25 13:29:00,
2013-08-25 08:32:00,76.4,73.6,30.21,SE,134,0.0,4.0,91,0.00,,---,0.00,VWS V14.01,2013-08-25 13:32:00,
2013-08-25 08:33:00,76.4,73.6,30.21,SE,134,0.0,4.0,91,0.00,,---,0.00,VWS V14.01,2013-08-25 13:33:00,
2013-08-25 08:34:00,76.4,73.6,30.20,West,261,1.0,4.0,91,0.00,,---,0.00,VWS V14.01,2013-08-25 13:34:00,
2013-08-25 08:37:00,76.5,73.7,30.20,WNW,292,1.0,4.0,91,0.00,,---,0.00,VWS V14.01,2013-08-25 13:37:00,
2013-08-25 08:38:00,76.5,73.3,30.20,WNW,292,0.0,4.0,90,0.00,,---,0.00,VWS V14.01,2013-08-25 13:38:00,
2013-08-25 08:39:00,76.5,73.7,30.21,WSW,250,2.0,4.0,91,0.00,,---,0.00,VWS V14.01,2013-08-25 13:39:00,
2013-08-25 08:40:00,76.6,73.4,30.21,SW,228,1.0,4.0,90,0.00,,---,0.00,VWS V14.01,2013-08-25 13:40:00,
2013-08-25 08:42:00,76.7,73.6,30.21,WNW,285,1.0,4.0,90,0.00,,---,0.00,VWS V14.01,2013-08-25 13:42:00,
2013-08-25 08:43:00,76.7,73.6,30.21,WNW,285,1.0,4.0,90,0.00,,---,0.00,VWS V14.01,2013-08-25 13:43:00,
2013-08-25 08:44:00,76.7,73.6,30.21,WNW,285,0.0,4.0,90,0.00,,---,0.00,VWS V14.01,2013-08-25 13:44:00,
2013-08-25 08:45:00,76.8,74.0,30.21,ESE,110,2.0,4.0,91,0.00,,---,0.00,VWS V14.01,2013-08-25 13:45:00,
2013-08-25 08:47:00,76.9,73.8,30.21,WNW,290,0.0,3.0,90,0.00,,---,0.00,VWS V14.01,2013-08-25 13:47:00,
2013-08-25 08:48:00,76.9,73.8,30.21,WNW,290,1.0,3.0,90,0.00,,---,0.00,VWS V14.01,2013-08-25 13:48:00,
2013-08-25 08:49:00,76.9,73.8,30.21,North,357,2.0,3.0,90,0.00,,---,0.00,VWS V14.01,2013-08-25 13:49:00,
2013-08-25 08:50:00,76.9,73.8,30.21,NNW,335,0.0,3.0,90,0.00,,---,0.00,VWS V14.01,2013-08-25 13:50:00,
2013-08-25 08:53:00,77.0,73.8,30.21,NNW,332,0.0,6.0,90,0.00,,---,0.00,VWS V14.01,2013-08-25 13:53:00,
2013-08-25 08:54:00,77.0,73.5,30.21,SW,233,1.0,6.0,89,0.00,,---,0.00,VWS V14.01,2013-08-25 13:54:00,
2013-08-25 08:55:00,77.1,73.6,30.21,SW,235,1.0,6.0,89,0.00,,---,0.00,VWS V14.01,2013-08-25 13:55:00,
2013-08-25 08:58:00,77.2,73.7,30.21,NNW,340,1.0,6.0,89,0.00,,---,0.00,VWS V14.01,2013-08-25 13:58:00,
2013-08-25 08:59:00,77.2,73.7,30.21,NW,307,0.0,6.0,89,0.00,,---,0.00,VWS V14.01,2013-08-25 13:59:00,
2013-08-25 09:01:00,77.3,73.8,30.21,West,278,0.0,6.0,89,0.00,,---,0.00,VWS V14.01,2013-08-25 14:01:00,
2013-08-25 09:03:00,77.4,73.9,30.21,WSW,238,0.0,3.0,89,0.00,,---,0.00,VWS V14.01,2013-08-25 14:03:00,
2013-08-25 09:04:00,77.4,73.9,30.21,West,271,0.0,3.0,89,0.00,,---,0.00,VWS V14.01,2013-08-25 14:04:00,
2013-08-25 09:06:00,77.5,74.0,30.21,WSW,257,1.0,3.0,89,0.00,,---,0.00,VWS V14.01,2013-08-25 14:06:00,
2013-08-25 09:08:00,77.6,74.1,30.21,NW,315,1.0,3.0,89,0.00,,---,0.00,VWS V14.01,2013-08-25 14:08:00,
2013-08-25 09:09:00,77.6,74.1,30.21,SW,235,1.0,3.0,89,0.00,,---,0.00,VWS V14.01,2013-08-25 14:09:00,
2013-08-25 09:11:00,77.7,74.2,30.21,West,280,1.0,3.0,89,0.00,,---,0.00,VWS V14.01,2013-08-25 14:11:00,
2013-08-25 09:14:00,77.7,73.9,30.21,NNW,333,0.0,3.0,88,0.00,,---,0.00,VWS V14.01,2013-08-25 14:14:00,
2013-08-25 09:16:00,77.8,74.0,30.21,SW,223,1.0,3.0,88,0.00,,---,0.00,VWS V14.01,2013-08-25 14:16:00,
2013-08-25 09:19:00,77.7,73.9,30.21,North,350,0.0,6.0,88,0.00,,---,0.00,VWS V14.01,2013-08-25 14:19:00,
2013-08-25 09:21:00,77.6,73.8,30.22,NW,321,0.0,6.0,88,0.00,,---,0.00,VWS V14.01,2013-08-25 14:21:00,
2013-08-25 09:24:00,77.6,73.8,30.21,SSW,195,2.0,6.0,88,0.00,,---,0.00,VWS V14.01,2013-08-25 14:24:00,
2013-08-25 09:25:00,77.6,73.8,30.22,WNW,294,1.0,6.0,88,0.00,,---,0.00,VWS V14.01,2013-08-25 14:25:00,
2013-08-25 09:26:00,77.6,73.8,30.21,West,262,0.0,6.0,88,0.00,,---,0.00,VWS V14.01,2013-08-25 14:26:00,
2013-08-25 09:29:00,77.6,73.8,30.21,SW,222,1.0,6.0,88,0.00,,---,0.00,VWS V14.01,2013-08-25 14:29:00,
2013-08-25 09:30:00,77.6,73.8,30.21,West,276,1.0,6.0,88,0.00,,---,0.00,VWS V14.01,2013-08-25 14:30:00,
2013-08-25 09:31:00,77.7,73.9,30.21,West,279,0.0,0.0,88,0.00,,---,0.00,VWS V14.01,2013-08-25 14:31:00,
2013-08-25 09:34:00,77.7,73.9,30.21,SW,226,2.0,4.0,88,0.00,,---,0.00,VWS V14.01,2013-08-25 14:34:00,
2013-08-25 09:35:00,77.7,73.9,30.22,WNW,298,1.0,4.0,88,0.00,,---,0.00,VWS V14.01,2013-08-25 14:35:00,
2013-08-25 09:36:00,77.7,73.9,30.22,NNW,335,1.0,4.0,88,0.00,,---,0.00,VWS V14.01,2013-08-25 14:36:00,
2013-08-25 09:39:00,77.8,74.0,30.22,NW,318,2.0,4.0,88,0.00,,---,0.00,VWS V14.01,2013-08-25 14:39:00,
2013-08-25 09:40:00,77.8,74.0,30.22,NW,321,0.0,4.0,88,0.00,,---,0.00,VWS V14.01,2013-08-25 14:40:00,
2013-08-25 09:41:00,77.8,73.6,30.22,SW,216,1.0,4.0,87,0.00,,---,0.00,VWS V14.01,2013-08-25 14:41:00,
2013-08-25 09:44:00,77.9,73.7,30.22,NW,306,1.0,4.0,87,0.00,,---,0.00,VWS V14.01,2013-08-25 14:44:00,
2013-08-25 09:45:00,77.9,73.7,30.22,NW,305,1.0,4.0,87,0.00,,---,0.00,VWS V14.01,2013-08-25 14:45:00,
2013-08-25 09:46:00,77.9,73.7,30.22,West,276,0.0,0.0,87,0.00,,---,0.00,VWS V14.01,2013-08-25 14:46:00,
2013-08-25 09:49:00,77.9,73.7,30.22,NNE,32,1.0,1.0,87,0.00,,---,0.00,VWS V14.01,2013-08-25 14:49:00,
2013-08-25 09:50:00,77.9,74.1,30.22,NNE,31,0.0,1.0,88,0.00,,---,0.00,VWS V14.01,2013-08-25 14:50:00,
2013-08-25 09:51:00,77.9,73.7,30.22,WNW,282,0.0,1.0,87,0.00,,---,0.00,VWS V14.01,2013-08-25 14:51:00,
2013-08-25 09:54:00,77.9,73.7,30.22,NNW,344,0.0,2.0,87,0.00,,---,0.00,VWS V14.01,2013-08-25 14:54:00,
2013-08-25 09:55:00,77.9,73.7,30.22,West,270,1.0,2.0,87,0.00,,---,0.00,VWS V14.01,2013-08-25 14:55:00,
2013-08-25 09:56:00,77.9,73.7,30.22,WSW,247,2.0,4.0,87,0.00,,---,0.00,VWS V14.01,2013-08-25 14:56:00,
2013-08-25 09:57:00,77.9,73.7,30.22,SSE,157,4.0,4.0,87,0.00,,---,0.00,VWS V14.01,2013-08-25 14:57:00,
2013-08-25 09:59:00,77.9,73.7,30.22,NW,323,1.0,5.0,87,0.00,,---,0.00,VWS V14.01,2013-08-25 14:59:00,
2013-08-25 10:00:00,77.9,73.7,30.22,SW,217,1.0,5.0,87,0.00,,---,0.00,VWS V14.01,2013-08-25 15:00:00,
2013-08-25 10:01:00,77.9,73.7,30.22,SW,230,0.0,5.0,87,0.00,,---,0.00,VWS V14.01,2013-08-25 15:01:00,
2013-08-25 10:02:00,78.0,73.8,30.22,WNW,294,1.0,2.0,87,0.00,,---,0.00,VWS V14.01,2013-08-25 15:02:00,
2013-08-25 10:04:00,78.0,73.8,30.22,WNW,286,0.0,2.0,87,0.00,,---,0.00,VWS V14.01,2013-08-25 15:04:00,
2013-08-25 10:05:00,78.0,73.8,30.22,WNW,286,0.0,2.0,87,0.00,,---,0.00,VWS V14.01,2013-08-25 15:05:00,
2013-08-25 10:06:00,78.1,73.9,30.22,SW,236,1.0,3.0,87,0.00,,---,0.00,VWS V14.01,2013-08-25 15:06:00,
2013-08-25 10:07:00,78.1,73.9,30.22,SW,218,4.0,4.0,87,0.00,,---,0.00,VWS V14.01,2013-08-25 15:07:00,
2013-08-25 10:09:00,78.2,73.7,30.22,WSW,248,2.0,4.0,86,0.00,,---,0.00,VWS V14.01,2013-08-25 15:09:00,
2013-08-25 10:10:00,78.2,73.7,30.22,WSW,238,1.0,4.0,86,0.00,,---,0.00,VWS V14.01,2013-08-25 15:10:00,
2013-08-25 10:11:00,78.3,74.1,30.22,WSW,238,0.0,4.0,87,0.00,,---,0.00,VWS V14.01,2013-08-25 15:11:00,
2013-08-25 10:12:00,78.3,74.1,30.22,WSW,241,0.0,4.0,87,0.00,,---,0.00,VWS V14.01,2013-08-25 15:12:00,
2013-08-25 10:15:00,78.4,74.2,30.22,WSW,240,0.0,4.0,87,0.00,,---,0.00,VWS V14.01,2013-08-25 15:15:00,
2013-08-25 10:16:00,78.4,74.2,30.22,WSW,240,0.0,4.0,87,0.00,,---,0.00,VWS V14.01,2013-08-25 15:16:00,
2013-08-25 10:17:00,78.5,74.3,30.22,WSW,240,0.0,1.0,87,0.00,,---,0.00,VWS V14.01,2013-08-25 15:17:00,
2013-08-25 10:20:00,78.7,74.5,30.22,WNW,285,1.0,2.0,87,0.00,,---,0.00,VWS V14.01,2013-08-25 15:20:00,
2013-08-25 10:21:00,78.7,74.2,30.22,West,264,1.0,2.0,86,0.00,,---,0.00,VWS V14.01,2013-08-25 15:21:00,
2013-08-25 10:22:00,78.7,73.8,30.22,NW,321,0.0,5.0,85,0.00,,---,0.00,VWS V14.01,2013-08-25 15:22:00,
2013-08-25 10:25:00,78.7,74.2,30.22,North,350,1.0,5.0,86,0.00,,---,0.00,VWS V14.01,2013-08-25 15:25:00,
2013-08-25 10:26:00,78.7,74.2,30.22,West,271,2.0,5.0,86,0.00,,---,0.00,VWS V14.01,2013-08-25 15:26:00,
2013-08-25 10:27:00,78.6,74.1,30.22,NW,321,0.0,5.0,86,0.00,,---,0.00,VWS V14.01,2013-08-25 15:27:00,
2013-08-25 10:30:00,78.6,74.1,30.22,WNW,290,1.0,5.0,86,0.00,,---,0.00,VWS V14.01,2013-08-25 15:30:00,
2013-08-25 10:31:00,78.6,74.1,30.22,WNW,297,1.0,5.0,86,0.00,,---,0.00,VWS V14.01,2013-08-25 15:31:00,
2013-08-25 10:32:00,78.6,74.1,30.22,NW,314,1.0,2.0,86,0.00,,---,0.00,VWS V14.01,2013-08-25 15:32:00,
2013-08-25 10:35:00,78.5,74.0,30.22,WSW,245,1.0,6.0,86,0.00,,---,0.00,VWS V14.01,2013-08-25 15:35:00,
2013-08-25 10:36:00,78.5,74.0,30.23,West,262,0.0,6.0,86,0.00,,---,0.00,VWS V14.01,2013-08-25 15:36:00,
2013-08-25 10:38:00,78.5,74.0,30.23,SW,233,1.0,6.0,86,0.00,,---,0.00,VWS V14.01,2013-08-25 15:38:00,
2013-08-25 10:40:00,78.5,74.0,30.23,WSW,237,0.0,6.0,86,0.00,,---,0.00,VWS V14.01,2013-08-25 15:40:00,
2013-08-25 10:42:00,78.5,74.0,30.23,NNW,328,0.0,6.0,86,0.00,,---,0.00,VWS V14.01,2013-08-25 15:42:00,
2013-08-25 10:43:00,78.5,74.0,30.23,SW,214,1.0,6.0,86,0.00,,---,0.00,VWS V14.01,2013-08-25 15:43:00,
2013-08-25 10:45:00,78.6,74.1,30.23,SW,236,1.0,6.0,86,0.00,,---,0.00,VWS V14.01,2013-08-25 15:45:00,
2013-08-25 10:47:00,78.7,73.8,30.23,WSW,257,0.0,3.0,85,0.00,,---,0.00,VWS V14.01,2013-08-25 15:47:00,
2013-08-25 10:48:00,78.7,73.8,30.23,South,187,3.0,3.0,85,0.00,,---,0.00,VWS V14.01,2013-08-25 15:48:00,
2013-08-25 10:50:00,78.8,73.9,30.23,WSW,245,0.0,3.0,85,0.00,,---,0.00,VWS V14.01,2013-08-25 15:50:00,
2013-08-25 10:51:00,78.8,73.9,30.23,WSW,245,0.0,3.0,85,0.00,,---,0.00,VWS V14.01,2013-08-25 15:51:00,
2013-08-25 10:52:00,78.9,74.0,30.23,WSW,245,0.0,3.0,85,0.00,,---,0.00,VWS V14.01,2013-08-25 15:52:00,
2013-08-25 10:53:00,79.0,73.8,30.23,SSW,212,3.0,3.0,84,0.00,,---,0.00,VWS V14.01,2013-08-25 15:53:00,
2013-08-25 10:55:00,79.0,73.8,30.23,WSW,242,1.0,3.0,84,0.00,,---,0.00,VWS V14.01,2013-08-25 15:55:00,
2013-08-25 10:56:00,79.1,73.8,30.23,WSW,242,0.0,3.0,84,0.00,,---,0.00,VWS V14.01,2013-08-25 15:56:00,
2013-08-25 10:57:00,79.1,73.8,30.23,West,267,0.0,3.0,84,0.00,,---,0.00,VWS V14.01,2013-08-25 15:57:00,
2013-08-25 10:58:00,79.2,73.9,30.23,WSW,254,0.0,3.0,84,0.00,,---,0.00,VWS V14.01,2013-08-25 15:58:00,
2013-08-25 11:01:00,79.3,74.1,30.23,WSW,253,1.0,3.0,84,0.00,,---,0.00,VWS V14.01,2013-08-25 16:01:00,
2013-08-25 11:02:00,79.3,73.7,30.23,SSW,210,3.0,3.0,83,0.00,,---,0.00,VWS V14.01,2013-08-25 16:02:00,
2013-08-25 11:03:00,79.4,73.8,30.23,WSW,240,0.0,3.0,83,0.00,,---,0.00,VWS V14.01,2013-08-25 16:03:00,
2013-08-25 11:06:00,79.5,73.9,30.23,WSW,254,0.0,3.0,83,0.00,,---,0.00,VWS V14.01,2013-08-25 16:06:00,
2013-08-25 11:07:00,79.5,73.9,30.23,West,266,2.0,3.0,83,0.00,,---,0.00,VWS V14.01,2013-08-25 16:07:00,
2013-08-25 11:08:00,79.5,73.9,30.23,West,271,1.0,3.0,83,0.00,,---,0.00,VWS V14.01,2013-08-25 16:08:00,
2013-08-25 11:11:00,79.6,74.0,30.23,WSW,241,0.0,3.0,83,0.00,,---,0.00,VWS V14.01,2013-08-25 16:11:00,
2013-08-25 11:12:00,79.6,74.0,30.23,WSW,247,0.0,3.0,83,0.00,,---,0.00,VWS V14.01,2013-08-25 16:12:00,
2013-08-25 11:13:00,79.6,74.3,30.23,WNW,301,1.0,3.0,84,0.00,,---,0.00,VWS V14.01,2013-08-25 16:13:00,
2013-08-25 11:16:00,79.6,74.0,30.23,WNW,302,0.0,3.0,83,0.00,,---,0.00,VWS V14.01,2013-08-25 16:16:00,
2013-08-25 11:17:00,79.5,73.9,30.23,SW,228,0.0,1.0,83,0.00,,---,0.00,VWS V14.01,2013-08-25 16:17:00,
2013-08-25 11:18:00,79.5,73.9,30.23,WSW,251,1.0,2.0,83,0.00,,---,0.00,VWS V14.01,2013-08-25 16:18:00,
2013-08-25 11:21:00,79.4,73.8,30.23,WSW,255,1.0,2.0,83,0.00,,---,0.00,VWS V14.01,2013-08-25 16:21:00,
2013-08-25 11:22:00,79.4,73.8,30.23,WSW,255,0.0,2.0,83,0.00,,---,0.00,VWS V14.01,2013-08-25 16:22:00,
2013-08-25 11:23:00,79.4,73.8,30.23,WSW,255,1.0,2.0,83,0.00,,---,0.00,VWS V14.01,2013-08-25 16:23:00,
2013-08-25 11:24:00,79.4,73.8,30.23,WSW,255,0.0,2.0,83,0.00,,---,0.00,VWS V14.01,2013-08-25 16:24:00,
2013-08-25 11:27:00,79.5,74.2,30.23,WNW,288,0.0,2.0,84,0.00,,---,0.00,VWS V14.01,2013-08-25 16:27:00,
2013-08-25 11:28:00,79.5,73.9,30.23,WNW,286,0.0,2.0,83,0.00,,---,0.00,VWS V14.01,2013-08-25 16:28:00,
2013-08-25 11:29:00,79.5,73.9,30.23,WSW,257,1.0,2.0,83,0.00,,---,0.00,VWS V14.01,2013-08-25 16:29:00,
2013-08-25 11:32:00,79.5,73.9,30.23,WNW,288,0.0,1.0,83,0.00,,---,0.00,VWS V14.01,2013-08-25 16:32:00,
2013-08-25 11:33:00,79.5,73.9,30.23,WNW,288,0.0,1.0,83,0.00,,---,0.00,VWS V14.01,2013-08-25 16:33:00,
2013-08-25 11:34:00,79.5,73.9,30.23,NW,311,1.0,2.0,83,0.00,,---,0.00,VWS V14.01,2013-08-25 16:34:00,
2013-08-25 11:37:00,79.5,73.5,30.23,WSW,257,2.0,4.0,82,0.00,,---,0.00,VWS V14.01,2013-08-25 16:37:00,
2013-08-25 11:38:00,79.5,73.5,30.23,SW,221,6.0,6.0,82,0.00,,---,0.00,VWS V14.01,2013-08-25 16:38:00,
2013-08-25 11:39:00,79.5,73.5,30.23,WNW,299,1.0,6.0,82,0.00,,---,0.00,VWS V14.01,2013-08-25 16:39:00,
2013-08-25 11:42:00,79.6,73.6,30.23,NW,321,0.0,6.0,82,0.00,,---,0.00,VWS V14.01,2013-08-25 16:42:00,
2013-08-25 11:43:00,79.6,73.6,30.23,NW,321,0.0,6.0,82,0.00,,---,0.00,VWS V14.01,2013-08-25 16:43:00,
2013-08-25 11:44:00,79.5,73.9,30.23,WSW,245,2.0,6.0,83,0.00,,---,0.00,VWS V14.01,2013-08-25 16:44:00,
2013-08-25 11:47:00,79.6,74.0,30.23,West,278,0.0,0.0,83,0.00,,---,0.00,VWS V14.01,2013-08-25 16:47:00,
2013-08-25 11:48:00,79.6,74.0,30.23,West,278,0.0,0.0,83,0.00,,---,0.00,VWS V14.01,2013-08-25 16:48:00,
2013-08-25 11:49:00,79.7,74.1,30.23,West,279,0.0,0.0,83,0.00,,---,0.00,VWS V14.01,2013-08-25 16:49:00,
2013-08-25 11:52:00,80.0,74.0,30.23,SW,231,0.0,7.0,82,0.00,,---,0.00,VWS V14.01,2013-08-25 16:52:00,
2013-08-25 11:53:00,80.1,74.0,30.23,SW,235,0.0,6.0,82,0.00,,,0.00,weatherlink.com 1.10,2013-08-25 16:53:00,
2013-08-25 11:54:00,80.1,74.1,30.23,SW,233,0.0,7.0,82,0.00,,---,0.00,VWS V14.01,2013-08-25 16:54:00,
2013-08-25 11:57:00,80.3,73.9,30.23,WSW,251,2.0,7.0,81,0.00,,---,0.00,VWS V14.01,2013-08-25 16:57:00,
2013-08-25 11:58:00,80.4,74.0,30.23,West,259,2.0,7.0,81,0.00,,---,0.00,VWS V14.01,2013-08-25 16:58:00,
2013-08-25 11:59:00,80.4,73.7,30.23,SW,228,2.0,7.0,80,0.00,,---,0.00,VWS V14.01,2013-08-25 16:59:00,
2013-08-25 12:03:00,80.4,73.7,30.23,WSW,243,0.0,2.0,80,0.00,,---,0.00,VWS V14.01,2013-08-25 17:03:00,
2013-08-25 12:04:00,80.4,73.7,30.23,SW,235,0.0,2.0,80,0.00,,---,0.00,VWS V14.01,2013-08-25 17:04:00,
2013-08-25 12:08:00,80.5,74.1,30.23,WSW,240,1.0,2.0,81,0.00,,---,0.00,VWS V14.01,2013-08-25 17:08:00,
2013-08-25 12:09:00,80.5,74.1,30.23,SW,226,2.0,5.0,81,0.00,,---,0.00,VWS V14.01,2013-08-25 17:09:00,
2013-08-25 12:10:00,80.5,73.8,30.23,SW,217,3.0,5.0,80,0.00,,---,0.00,VWS V14.01,2013-08-25 17:10:00,
2013-08-25 12:13:00,80.5,73.8,30.22,WSW,254,0.0,5.0,80,0.00,,---,0.00,VWS V14.01,2013-08-25 17:13:00,
2013-08-25 12:14:00,80.5,73.8,30.22,WSW,253,1.0,5.0,80,0.00,,---,0.00,VWS V14.01,2013-08-25 17:14:00,
2013-08-25 12:15:00,80.5,73.8,30.22,WSW,254,1.0,5.0,80,0.00,,---,0.00,VWS V14.01,2013-08-25 17:15:00,
2013-08-25 12:19:00,80.7,74.0,30.22,WSW,240,2.0,2.0,80,0.00,,---,0.00,VWS V14.01,2013-08-25 17:19:00,
2013-08-25 12:20:00,80.8,74.1,30.22,SSW,210,1.0,5.0,80,0.00,,---,0.00,VWS V14.01,2013-08-25 17:20:00,
2013-08-25 12:24:00,80.9,73.8,30.22,SW,220,0.0,5.0,79,0.00,,---,0.00,VWS V14.01,2013-08-25 17:24:00,
2013-08-25 12:25:00,80.9,74.2,30.22,NNW,330,2.0,5.0,80,0.00,,---,0.00,VWS V14.01,2013-08-25 17:25:00,
2013-08-25 12:29:00,80.8,74.1,30.22,WSW,254,0.0,5.0,80,0.00,,---,0.00,VWS V14.01,2013-08-25 17:29:00,
2013-08-25 12:30:00,80.8,74.1,30.22,WSW,241,1.0,5.0,80,0.00,,---,0.00,VWS V14.01,2013-08-25 17:30:00,
2013-08-25 12:34:00,81.0,74.2,30.22,WSW,244,1.0,2.0,80,0.00,,---,0.00,VWS V14.01,2013-08-25 17:34:00,
2013-08-25 12:35:00,81.1,74.3,30.22,WSW,242,0.0,3.0,80,0.00,,---,0.00,VWS V14.01,2013-08-25 17:35:00,
2013-08-25 12:39:00,81.1,74.0,30.21,West,267,0.0,4.0,79,0.00,,---,0.00,VWS V14.01,2013-08-25 17:39:00,
2013-08-25 12:40:00,81.1,74.3,30.21,West,278,3.0,4.0,80,0.00,,---,0.00,VWS V14.01,2013-08-25 17:40:00,
2013-08-25 12:41:00,81.1,74.0,30.21,WSW,255,2.0,5.0,79,0.00,,---,0.00,VWS V14.01,2013-08-25 17:41:00,
2013-08-25 12:44:00,81.1,74.0,30.21,SW,236,1.0,6.0,79,0.00,,---,0.00,VWS V14.01,2013-08-25 17:44:00,
2013-08-25 12:45:00,81.1,74.0,30.21,WSW,250,0.0,6.0,79,0.00,,---,0.00,VWS V14.01,2013-08-25 17:45:00,
2013-08-25 12:46:00,81.1,74.0,30.21,WSW,252,0.0,6.0,79,0.00,,---,0.00,VWS V14.01,2013-08-25 17:46:00,
2013-08-25 12:49:00,81.2,74.1,30.21,WSW,249,1.0,5.0,79,0.00,,---,0.00,VWS V14.01,2013-08-25 17:49:00,
2013-08-25 12:50:00,81.2,74.1,30.21,West,262,1.0,5.0,79,0.00,,---,0.00,VWS V14.01,2013-08-25 17:50:00,
2013-08-25 12:51:00,81.2,74.1,30.21,WSW,254,0.0,5.0,79,0.00,,---,0.00,VWS V14.01,2013-08-25 17:51:00,
2013-08-25 12:54:00,81.5,74.7,30.21,WSW,255,0.0,5.0,80,0.00,,---,0.00,VWS V14.01,2013-08-25 17:54:00,
2013-08-25 12:55:00,81.6,74.8,30.21,SW,233,3.0,5.0,80,0.00,,---,0.00,VWS V14.01,2013-08-25 17:55:00,
2013-08-25 12:56:00,81.7,74.6,30.21,West,262,2.0,5.0,79,0.00,,---,0.00,VWS V14.01,2013-08-25 17:56:00,
2013-08-25 12:59:00,82.0,74.8,30.20,West,262,0.0,5.0,79,0.00,,---,0.00,VWS V14.01,2013-08-25 17:59:00,
2013-08-25 13:00:00,82.1,74.9,30.20,WSW,244,1.0,5.0,79,0.00,,---,0.00,VWS V14.01,2013-08-25 18:00:00,
2013-08-25 13:01:00,82.1,74.9,30.20,West,276,1.0,5.0,79,0.00,,---,0.00,VWS V14.01,2013-08-25 18:01:00,
2013-08-25 13:05:00,82.3,74.8,30.20,WSW,247,2.0,3.0,78,0.00,,---,0.00,VWS V14.01,2013-08-25 18:05:00,
2013-08-25 13:06:00,82.5,74.9,30.20,SW,233,2.0,3.0,78,0.00,,---,0.00,VWS V14.01,2013-08-25 18:06:00,
2013-08-25 13:10:00,83.1,75.2,30.20,WSW,247,0.0,3.0,77,0.00,,---,0.00,VWS V14.01,2013-08-25 18:10:00,
2013-08-25 13:11:00,83.2,75.2,30.20,WSW,245,3.0,4.0,77,0.00,,---,0.00,VWS V14.01,2013-08-25 18:11:00,
2013-08-25 13:12:00,83.3,74.9,30.20,SSW,207,1.0,4.0,76,0.00,,---,0.00,VWS V14.01,2013-08-25 18:12:00,
2013-08-25 13:15:00,83.7,75.7,30.20,WSW,237,0.0,4.0,77,0.00,,---,0.00,VWS V14.01,2013-08-25 18:15:00,
2013-08-25 13:16:00,83.9,75.5,30.20,WSW,237,0.0,4.0,76,0.00,,---,0.00,VWS V14.01,2013-08-25 18:16:00,
2013-08-25 13:17:00,84.0,75.6,30.20,SW,228,3.0,3.0,76,0.00,,---,0.00,VWS V14.01,2013-08-25 18:17:00,
2013-08-25 13:20:00,84.6,75.4,30.20,NW,324,1.0,3.0,74,0.00,,---,0.00,VWS V14.01,2013-08-25 18:20:00,
2013-08-25 13:21:00,84.6,75.4,30.20,NW,323,1.0,3.0,74,0.00,,---,0.00,VWS V14.01,2013-08-25 18:21:00,
2013-08-25 13:22:00,84.7,75.5,30.20,NW,321,0.0,3.0,74,0.00,,---,0.00,VWS V14.01,2013-08-25 18:22:00,
2013-08-25 13:26:00,84.8,75.6,30.20,West,268,0.0,3.0,74,0.00,,---,0.00,VWS V14.01,2013-08-25 18:26:00,
2013-08-25 13:27:00,84.8,75.6,30.20,West,268,0.0,3.0,74,0.00,,---,0.00,VWS V14.01,2013-08-25 18:27:00,
2013-08-25 13:31:00,85.1,75.9,30.20,WSW,238,0.0,3.0,74,0.00,,---,0.00,VWS V14.01,2013-08-25 18:31:00,
2013-08-25 13:32:00,85.2,75.6,30.20,SW,221,3.0,4.0,73,0.00,,---,0.00,VWS V14.01,2013-08-25 18:32:00,
2013-08-25 13:36:00,85.2,75.2,30.19,WSW,247,1.0,5.0,72,0.00,,---,0.00,VWS V14.01,2013-08-25 18:36:00,
2013-08-25 13:37:00,85.3,75.2,30.20,WSW,237,1.0,5.0,72,0.00,,---,0.00,VWS V14.01,2013-08-25 18:37:00,
2013-08-25 13:41:00,85.4,75.3,30.20,West,264,1.0,5.0,72,0.00,,---,0.00,VWS V14.01,2013-08-25 18:41:00,
2013-08-25 13:42:00,85.4,75.3,30.20,WSW,250,1.0,5.0,72,0.00,,---,0.00,VWS V14.01,2013-08-25 18:42:00,
2013-08-25 13:46:00,85.6,76.0,30.19,NW,323,1.0,5.0,73,0.00,,---,0.00,VWS V14.01,2013-08-25 18:46:00,
2013-08-25 13:47:00,85.7,75.6,30.19,NW,321,1.0,1.0,72,0.00,,---,0.00,VWS V14.01,2013-08-25 18:47:00,
2013-08-25 13:48:00,85.8,75.7,30.19,NW,326,1.0,2.0,72,0.00,,---,0.00,VWS V14.01,2013-08-25 18:48:00,
2013-08-25 13:51:00,86.0,75.5,30.19,WSW,249,1.0,3.0,71,0.00,,---,0.00,VWS V14.01,2013-08-25 18:51:00,
2013-08-25 13:52:00,86.2,75.3,30.19,SW,228,3.0,3.0,70,0.00,,---,0.00,VWS V14.01,2013-08-25 18:52:00,
2013-08-25 13:53:00,86.3,75.4,30.19,West,279,2.0,4.0,70,0.00,,---,0.00,VWS V14.01,2013-08-25 18:53:00,
2013-08-25 13:56:00,86.4,75.9,30.19,West,276,2.0,4.0,71,0.00,,---,0.00,VWS V14.01,2013-08-25 18:56:00,
2013-08-25 13:57:00,86.4,75.5,30.19,West,273,2.0,4.0,70,0.00,,---,0.00,VWS V14.01,2013-08-25 18:57:00,
2013-08-25 13:58:00,86.4,76.7,30.19,West,273,0.0,4.0,73,0.00,,---,0.00,VWS V14.01,2013-08-25 18:58:00,
2013-08-25 14:01:00,86.7,76.6,30.19,NW,310,2.0,4.0,72,0.00,,---,0.00,VWS V14.01,2013-08-25 19:01:00,
2013-08-25 14:02:00,86.8,75.8,30.19,NW,314,1.0,2.0,70,0.00,,---,0.00,VWS V14.01,2013-08-25 19:02:00,
2013-08-25 14:03:00,86.9,75.9,30.19,NW,314,0.0,2.0,70,0.00,,---,0.00,VWS V14.01,2013-08-25 19:03:00,
2013-08-25 14:06:00,87.1,76.1,30.18,NNW,328,1.0,2.0,70,0.00,,---,0.00,VWS V14.01,2013-08-25 19:06:00,
2013-08-25 14:08:00,87.3,76.3,30.18,West,259,1.0,2.0,70,0.00,,---,0.00,VWS V14.01,2013-08-25 19:08:00,
2013-08-25 14:12:00,87.7,75.8,30.18,NNW,343,0.0,3.0,68,0.00,,---,0.00,VWS V14.01,2013-08-25 19:12:00,
2013-08-25 14:13:00,87.6,74.8,30.18,WSW,256,2.0,3.0,66,0.00,,---,0.00,VWS V14.01,2013-08-25 19:13:00,
2013-08-25 14:17:00,87.2,74.9,30.18,West,264,0.0,1.0,67,0.00,,---,0.00,VWS V14.01,2013-08-25 19:17:00,
2013-08-25 14:18:00,87.2,75.4,30.18,West,263,0.0,1.0,68,0.00,,---,0.00,VWS V14.01,2013-08-25 19:18:00,
2013-08-25 14:19:00,87.2,75.4,30.18,WNW,299,2.0,2.0,68,0.00,,---,0.00,VWS V14.01,2013-08-25 19:19:00,
2013-08-25 14:21:00,87.0,75.6,30.18,East,96,3.0,4.0,69,0.00,,---,0.00,VWS V14.01,2013-08-25 19:21:00,
2013-08-25 14:22:00,86.7,74.9,30.18,East,90,1.0,4.0,68,0.00,,---,0.00,VWS V14.01,2013-08-25 19:22:00,
2013-08-25 14:23:00,86.6,75.2,30.18,East,90,1.0,4.0,69,0.00,,---,0.00,VWS V14.01,2013-08-25 19:23:00,
2013-08-25 14:24:00,86.4,75.5,30.18,West,274,0.0,4.0,70,0.00,,---,0.00,VWS V14.01,2013-08-25 19:24:00,
2013-08-25 14:27:00,86.1,75.2,30.18,NNW,340,0.0,4.0,70,0.00,,---,0.00,VWS V14.01,2013-08-25 19:27:00,
2013-08-25 14:28:00,86.1,75.2,30.18,NNW,340,1.0,4.0,70,0.00,,---,0.00,VWS V14.01,2013-08-25 19:28:00,
2013-08-25 14:29:00,86.0,75.1,30.17,NNW,340,1.0,4.0,70,0.00,,---,0.00,VWS V14.01,2013-08-25 19:29:00,
2013-08-25 14:30:00,86.0,74.7,30.17,NNW,340,1.0,4.0,69,0.00,,---,0.00,VWS V14.01,2013-08-25 19:30:00,
2013-08-25 14:32:00,85.9,75.4,30.17,NNW,340,1.0,1.0,71,0.00,,---,0.00,VWS V14.01,2013-08-25 19:32:00,
2013-08-25 14:33:00,85.9,75.4,30.17,NNW,340,1.0,1.0,71,0.00,,---,0.00,VWS V14.01,2013-08-25 19:33:00,
2013-08-25 14:34:00,86.0,75.5,30.17,NNW,338,2.0,2.0,71,0.00,,---,0.00,VWS V14.01,2013-08-25 19:34:00,
2013-08-25 14:35:00,86.0,75.5,30.17,NNW,330,1.0,2.0,71,0.00,,---,0.00,VWS V14.01,2013-08-25 19:35:00,
2013-08-25 14:37:00,86.2,75.3,30.17,North,1,1.0,3.0,70,0.00,,---,0.00,VWS V14.01,2013-08-25 19:37:00,
2013-08-25 14:38:00,86.4,75.5,30.17,SW,221,5.0,5.0,70,0.00,,---,0.00,VWS V14.01,2013-08-25 19:38:00,
2013-08-25 14:40:00,86.6,74.8,30.17,WSW,250,1.0,5.0,68,0.00,,---,0.00,VWS V14.01,2013-08-25 19:40:00,
2013-08-25 14:42:00,86.6,74.8,30.17,ESE,105,4.0,5.0,68,0.00,,---,0.00,VWS V14.01,2013-08-25 19:42:00,
2013-08-25 14:43:00,86.6,75.2,30.17,East,86,0.0,5.0,69,0.00,,---,0.00,VWS V14.01,2013-08-25 19:43:00,
2013-08-25 14:45:00,86.4,75.0,30.17,ENE,76,2.0,5.0,69,0.00,,---,0.00,VWS V14.01,2013-08-25 19:45:00,
2013-08-25 14:47:00,86.2,75.3,30.17,NNW,335,0.0,1.0,70,0.00,,---,0.00,VWS V14.01,2013-08-25 19:47:00,
2013-08-25 14:48:00,86.1,75.2,30.17,NNW,335,0.0,1.0,70,0.00,,---,0.00,VWS V14.01,2013-08-25 19:48:00,
2013-08-25 14:49:00,86.0,75.5,30.17,NNW,335,0.0,1.0,71,0.00,,---,0.00,VWS V14.01,2013-08-25 19:49:00,
2013-08-25 14:50:00,86.0,75.5,30.17,NNW,335,0.0,1.0,71,0.00,,---,0.00,VWS V14.01,2013-08-25 19:50:00,
2013-08-25 14:52:00,85.8,74.9,30.17,WNW,302,1.0,2.0,70,0.00,,---,0.00,VWS V14.01,2013-08-25 19:52:00,
2013-08-25 14:53:00,85.7,74.4,30.17,WNW,302,0.0,2.0,69,0.00,,---,0.00,VWS V14.01,2013-08-25 19:53:00,
2013-08-25 14:54:00,85.6,74.7,30.17,North,350,1.0,2.0,70,0.00,,---,0.00,VWS V14.01,2013-08-25 19:54:00,
2013-08-25 14:55:00,85.6,74.7,30.17,North,350,0.0,2.0,70,0.00,,---,0.00,VWS V14.01,2013-08-25 19:55:00,
2013-08-25 14:57:00,85.5,75.0,30.17,NNW,347,1.0,2.0,71,0.00,,---,0.00,VWS V14.01,2013-08-25 19:57:00,
2013-08-25 14:58:00,85.4,74.9,30.17,North,353,1.0,2.0,71,0.00,,---,0.00,VWS V14.01,2013-08-25 19:58:00,
2013-08-25 14:59:00,85.4,74.5,30.16,NW,315,1.0,2.0,70,0.00,,---,0.00,VWS V14.01,2013-08-25 19:59:00,
2013-08-25 15:00:00,85.4,74.5,30.16,NW,315,1.0,2.0,70,0.00,,---,0.00,VWS V14.01,2013-08-25 20:00:00,
2013-08-25 15:03:00,85.4,74.9,30.17,NE,51,0.0,3.0,71,0.00,,---,0.00,VWS V14.01,2013-08-25 20:03:00,
2013-08-25 15:05:00,85.6,74.7,30.17,NNW,335,0.0,3.0,70,0.00,,---,0.00,VWS V14.01,2013-08-25 20:05:00,
2013-08-25 15:08:00,86.2,74.0,30.16,West,281,1.0,3.0,67,0.00,,---,0.00,VWS V14.01,2013-08-25 20:08:00,
2013-08-25 15:10:00,86.7,75.3,30.16,West,280,1.0,3.0,69,0.00,,---,0.00,VWS V14.01,2013-08-25 20:10:00,
2013-08-25 15:11:00,86.9,74.2,30.16,WSW,245,3.0,3.0,66,0.00,,---,0.00,VWS V14.01,2013-08-25 20:11:00,
2013-08-25 15:13:00,87.4,73.7,30.16,WSW,257,2.0,6.0,64,0.00,,---,0.00,VWS V14.01,2013-08-25 20:13:00,
2013-08-25 15:15:00,87.6,73.9,30.16,WSW,248,1.0,6.0,64,0.00,,---,0.00,VWS V14.01,2013-08-25 20:15:00,
2013-08-25 15:16:00,87.7,74.0,30.16,SW,226,1.0,6.0,64,0.00,,---,0.00,VWS V14.01,2013-08-25 20:16:00,
2013-08-25 15:18:00,88.4,74.7,30.16,West,276,1.0,2.0,64,0.00,,---,0.00,VWS V14.01,2013-08-25 20:18:00,
2013-08-25 15:19:00,88.4,74.7,30.16,West,276,1.0,2.0,64,0.00,,---,0.00,VWS V14.01,2013-08-25 20:19:00,
2013-08-25 15:20:00,88.6,73.9,30.16,SW,235,1.0,6.0,62,0.00,,---,0.00,VWS V14.01,2013-08-25 20:20:00,
2013-08-25 15:21:00,88.8,74.1,30.16,WSW,248,1.0,6.0,62,0.00,,---,0.00,VWS V14.01,2013-08-25 20:21:00,
2013-08-25 15:24:00,89.0,73.8,30.16,WSW,240,6.0,6.0,61,0.00,,---,0.00,VWS V14.01,2013-08-25 20:24:00,
2013-08-25 15:26:00,88.8,73.6,30.16,WNW,285,4.0,6.0,61,0.00,,---,0.00,VWS V14.01,2013-08-25 20:26:00,
2013-08-25 15:29:00,89.1,74.4,30.16,WSW,250,1.0,6.0,62,0.00,,---,0.00,VWS V14.01,2013-08-25 20:29:00,
2013-08-25 15:31:00,89.5,74.3,30.16,WSW,245,2.0,6.0,61,0.00,,---,0.00,VWS V14.01,2013-08-25 20:31:00,
2013-08-25 15:34:00,89.9,74.2,30.16,WSW,257,1.0,3.0,60,0.00,,---,0.00,VWS V14.01,2013-08-25 20:34:00,
2013-08-25 15:36:00,90.0,74.3,30.16,WNW,293,2.0,3.0,60,0.00,,---,0.00,VWS V14.01,2013-08-25 20:36:00,
2013-08-25 15:37:00,89.9,74.2,30.16,West,266,1.0,7.0,60,0.00,,---,0.00,VWS V14.01,2013-08-25 20:37:00,
2013-08-25 15:39:00,89.9,73.2,30.16,SW,231,2.0,7.0,58,0.00,,---,0.00,VWS V14.01,2013-08-25 20:39:00,
2013-08-25 15:41:00,89.9,73.7,30.16,SW,233,4.0,7.0,59,0.00,,---,0.00,VWS V14.01,2013-08-25 20:41:00,
2013-08-25 15:42:00,89.8,73.6,30.16,SW,214,3.0,7.0,59,0.00,,---,0.00,VWS V14.01,2013-08-25 20:42:00,
2013-08-25 15:44:00,89.5,72.8,30.15,SW,231,1.0,7.0,58,0.00,,---,0.00,VWS V14.01,2013-08-25 20:44:00,
2013-08-25 15:46:00,89.4,73.7,30.15,West,273,3.0,7.0,60,0.00,,---,0.00,VWS V14.01,2013-08-25 20:46:00,
2013-08-25 15:47:00,89.3,73.1,30.15,West,280,1.0,5.0,59,0.00,,---,0.00,VWS V14.01,2013-08-25 20:47:00,
2013-08-25 15:49:00,89.4,73.7,30.15,WSW,248,1.0,5.0,60,0.00,,---,0.00,VWS V14.01,2013-08-25 20:49:00,
2013-08-25 15:51:00,89.7,74.0,30.15,West,265,0.0,5.0,60,0.00,,---,0.00,VWS V14.01,2013-08-25 20:51:00,
2013-08-25 15:52:00,89.9,74.2,30.15,West,264,0.0,5.0,60,0.00,,---,0.00,VWS V14.01,2013-08-25 20:52:00,
2013-08-25 15:54:00,90.2,73.9,30.15,WSW,245,2.0,5.0,59,0.00,,---,0.00,VWS V14.01,2013-08-25 20:54:00,
2013-08-25 15:55:00,90.2,73.9,30.15,WSW,247,0.0,5.0,59,0.00,,---,0.00,VWS V14.01,2013-08-25 20:55:00,
2013-08-25 15:56:00,90.1,73.3,30.15,SW,217,4.0,5.0,58,0.00,,---,0.00,VWS V14.01,2013-08-25 20:56:00,
2013-08-25 15:58:00,89.9,73.7,30.15,West,264,1.0,6.0,59,0.00,,---,0.00,VWS V14.01,2013-08-25 20:58:00,
2013-08-25 15:59:00,89.8,73.6,30.15,WSW,245,1.0,6.0,59,0.00,,---,0.00,VWS V14.01,2013-08-25 20:59:00,
2013-08-25 16:00:00,89.8,73.6,30.15,West,263,1.0,6.0,59,0.00,,---,0.00,VWS V14.01,2013-08-25 21:00:00,
2013-08-25 16:01:00,89.9,73.7,30.15,SW,221,4.0,4.0,59,0.00,,---,0.00,VWS V14.01,2013-08-25 21:01:00,
2013-08-25 16:02:00,89.9,73.7,30.15,SW,214,3.0,4.0,59,0.00,,---,0.00,VWS V14.01,2013-08-25 21:02:00,
2013-08-25 16:03:00,89.9,73.2,30.15,WSW,241,2.0,5.0,58,0.00,,---,0.00,VWS V14.01,2013-08-25 21:03:00,
2013-08-25 16:04:00,90.0,73.8,30.15,WSW,257,1.0,5.0,59,0.00,,---,0.00,VWS V14.01,2013-08-25 21:04:00,
2013-08-25 16:05:00,90.0,73.8,30.15,WSW,257,0.0,5.0,59,0.00,,---,0.00,VWS V14.01,2013-08-25 21:05:00,
2013-08-25 16:07:00,90.1,74.8,30.15,West,269,1.0,5.0,61,0.00,,---,0.00,VWS V14.01,2013-08-25 21:07:00,
2013-08-25 16:08:00,90.2,74.9,30.15,West,269,0.0,5.0,61,0.00,,---,0.00,VWS V14.01,2013-08-25 21:08:00,
2013-08-25 16:09:00,90.1,74.3,30.15,WSW,238,1.0,5.0,60,0.00,,---,0.00,VWS V14.01,2013-08-25 21:09:00,
2013-08-25 16:10:00,90.1,73.8,30.15,SW,230,2.0,5.0,59,0.00,,---,0.00,VWS V14.01,2013-08-25 21:10:00,
2013-08-25 16:12:00,90.0,72.7,30.15,SSW,207,2.0,5.0,57,0.00,,---,0.00,VWS V14.01,2013-08-25 21:12:00,
2013-08-25 16:13:00,89.9,73.7,30.15,SW,216,0.0,5.0,59,0.00,,---,0.00,VWS V14.01,2013-08-25 21:13:00,
2013-08-25 16:14:00,89.8,73.6,30.15,SW,216,0.0,5.0,59,0.00,,---,0.00,VWS V14.01,2013-08-25 21:14:00,
2013-08-25 16:15:00,89.8,74.1,30.15,SW,216,0.0,5.0,60,0.00,,---,0.00,VWS V14.01,2013-08-25 21:15:00,
2013-08-25 16:17:00,89.5,72.8,30.15,West,281,0.0,3.0,58,0.00,,---,0.00,VWS V14.01,2013-08-25 21:17:00,
2013-08-25 16:18:00,89.3,74.1,30.15,ENE,66,1.0,3.0,61,0.00,,---,0.00,VWS V14.01,2013-08-25 21:18:00,
2013-08-25 16:19:00,89.1,73.9,30.15,ENE,65,0.0,3.0,61,0.00,,---,0.00,VWS V14.01,2013-08-25 21:19:00,
2013-08-25 16:20:00,89.0,74.3,30.15,ENE,65,0.0,3.0,62,0.00,,---,0.00,VWS V14.01,2013-08-25 21:20:00,
2013-08-25 16:22:00,88.5,73.8,30.15,ENE,70,2.0,3.0,62,0.00,,---,0.00,VWS V14.01,2013-08-25 21:22:00,
2013-08-25 16:23:00,88.4,73.7,30.15,ENE,63,1.0,3.0,62,0.00,,---,0.00,VWS V14.01,2013-08-25 21:23:00,
2013-08-25 16:24:00,88.2,73.6,30.15,ENE,63,0.0,3.0,62,0.00,,---,0.00,VWS V14.01,2013-08-25 21:24:00,
2013-08-25 16:25:00,88.0,73.8,30.15,ENE,63,0.0,3.0,63,0.00,,---,0.00,VWS V14.01,2013-08-25 21:25:00,
2013-08-25 16:27:00,87.5,74.3,30.15,NE,51,0.0,3.0,65,0.00,,---,0.00,VWS V14.01,2013-08-25 21:27:00,
2013-08-25 16:28:00,87.4,74.2,30.15,North,1,1.0,4.0,65,0.00,,---,0.00,VWS V14.01,2013-08-25 21:28:00,
2013-08-25 16:29:00,87.3,74.1,30.15,NNE,13,1.0,4.0,65,0.00,,---,0.00,VWS V14.01,2013-08-25 21:29:00,
2013-08-25 16:30:00,87.1,73.9,30.15,North,8,0.0,4.0,65,0.00,,---,0.00,VWS V14.01,2013-08-25 21:30:00,
2013-08-25 16:32:00,86.9,74.6,30.15,WNW,293,1.0,1.0,67,0.00,,---,0.00,VWS V14.01,2013-08-25 21:32:00,
2013-08-25 16:34:00,86.8,74.5,30.15,NE,48,3.0,4.0,67,0.00,,---,0.00,VWS V14.01,2013-08-25 21:34:00,
2013-08-25 16:35:00,86.8,74.5,30.15,NE,42,1.0,4.0,67,0.00,,---,0.00,VWS V14.01,2013-08-25 21:35:00,
2013-08-25 16:37:00,86.6,74.3,30.14,East,90,1.0,4.0,67,0.00,,---,0.00,VWS V14.01,2013-08-25 21:37:00,
2013-08-25 16:39:00,86.5,74.2,30.14,ENE,67,1.0,4.0,67,0.00,,---,0.00,VWS V14.01,2013-08-25 21:39:00,
2013-08-25 16:40:00,86.4,74.2,30.15,ENE,63,1.0,4.0,67,0.00,,---,0.00,VWS V14.01,2013-08-25 21:40:00,
2013-08-25 16:42:00,86.3,74.5,30.15,NNW,340,1.0,4.0,68,0.00,,---,0.00,VWS V14.01,2013-08-25 21:42:00,
2013-08-25 16:44:00,86.3,74.5,30.15,NE,46,2.0,4.0,68,0.00,,---,0.00,VWS V14.01,2013-08-25 21:44:00,
2013-08-25 16:45:00,86.2,74.0,30.15,North,3,1.0,5.0,67,0.00,,---,0.00,VWS V14.01,2013-08-25 21:45:00,
2013-08-25 16:48:00,86.2,74.0,30.14,ENE,67,1.0,2.0,67,0.00,,---,0.00,VWS V14.01,2013-08-25 21:48:00,
2013-08-25 16:49:00,86.3,73.6,30.14,ENE,75,2.0,5.0,66,0.00,,---,0.00,VWS V14.01,2013-08-25 21:49:00,
2013-08-25 16:50:00,86.4,74.6,30.14,ENE,74,0.0,5.0,68,0.00,,---,0.00,VWS V14.01,2013-08-25 21:50:00,
2013-08-25 16:51:00,86.4,74.6,30.14,ENE,74,0.0,5.0,68,0.00,,---,0.00,VWS V14.01,2013-08-25 21:51:00,
2013-08-25 16:53:00,86.6,74.3,30.14,North,360,2.0,5.0,67,0.00,,---,0.00,VWS V14.01,2013-08-25 21:53:00,
2013-08-25 16:54:00,86.8,74.5,30.14,North,8,2.0,5.0,67,0.00,,---,0.00,VWS V14.01,2013-08-25 21:54:00,
2013-08-25 16:55:00,86.8,74.5,30.14,East,82,3.0,5.0,67,0.00,,---,0.00,VWS V14.01,2013-08-25 21:55:00,
2013-08-25 16:56:00,86.9,73.7,30.14,NNW,344,1.0,5.0,65,0.00,,---,0.00,VWS V14.01,2013-08-25 21:56:00,
2013-08-25 16:58:00,87.0,73.8,30.14,NNW,340,1.0,5.0,65,0.00,,---,0.00,VWS V14.01,2013-08-25 21:58:00,
2013-08-25 16:59:00,87.2,74.5,30.14,NNW,328,0.0,5.0,66,0.00,,---,0.00,VWS V14.01,2013-08-25 21:59:00,
2013-08-25 17:00:00,87.2,74.5,30.14,NNW,328,0.0,5.0,66,0.00,,---,0.00,VWS V14.01,2013-08-25 22:00:00,
2013-08-25 17:01:00,87.3,75.0,30.14,NNW,328,1.0,5.0,67,0.00,,---,0.00,VWS V14.01,2013-08-25 22:01:00,
2013-08-25 17:02:00,87.3,74.6,30.14,NW,326,1.0,1.0,66,0.00,,---,0.00,VWS V14.01,2013-08-25 22:02:00,
2013-08-25 17:03:00,87.5,74.3,30.14,West,281,0.0,1.0,65,0.00,,---,0.00,VWS V14.01,2013-08-25 22:03:00,
2013-08-25 17:05:00,87.8,74.1,30.14,North,6,1.0,2.0,64,0.00,,---,0.00,VWS V14.01,2013-08-25 22:05:00,
2013-08-25 17:06:00,87.9,74.7,30.14,North,4,0.0,2.0,65,0.00,,---,0.00,VWS V14.01,2013-08-25 22:06:00,
2013-08-25 17:07:00,87.9,75.1,30.14,North,4,0.0,2.0,66,0.00,,---,0.00,VWS V14.01,2013-08-25 22:07:00,
2013-08-25 17:08:00,88.0,74.8,30.14,NNE,32,2.0,2.0,65,0.00,,---,0.00,VWS V14.01,2013-08-25 22:08:00,
2013-08-25 17:10:00,87.9,73.7,30.14,East,94,3.0,4.0,63,0.00,,---,0.00,VWS V14.01,2013-08-25 22:10:00,
2013-08-25 17:12:00,87.8,74.1,30.14,East,87,1.0,4.0,64,0.00,,---,0.00,VWS V14.01,2013-08-25 22:12:00,
2013-08-25 17:13:00,87.7,74.0,30.14,East,87,1.0,4.0,64,0.00,,---,0.00,VWS V14.01,2013-08-25 22:13:00,
2013-08-25 17:15:00,87.7,74.5,30.14,East,87,1.0,4.0,65,0.00,,---,0.00,VWS V14.01,2013-08-25 22:15:00,
2013-08-25 17:16:00,87.7,74.5,30.14,East,87,1.0,4.0,65,0.00,,---,0.00,VWS V14.01,2013-08-25 22:16:00,
2013-08-25 17:17:00,87.9,74.2,30.14,East,88,1.0,1.0,64,0.00,,---,0.00,VWS V14.01,2013-08-25 22:17:00,
2013-08-25 17:18:00,88.1,73.9,30.14,East,91,0.0,1.0,63,0.00,,---,0.00,VWS V14.01,2013-08-25 22:18:00,
2013-08-25 17:20:00,88.5,74.8,30.14,East,93,0.0,1.0,64,0.00,,---,0.00,VWS V14.01,2013-08-25 22:20:00,
2013-08-25 17:21:00,88.6,74.9,30.14,WSW,254,1.0,1.0,64,0.00,,---,0.00,VWS V14.01,2013-08-25 22:21:00,
2013-08-25 17:22:00,88.9,74.7,30.14,WSW,254,1.0,1.0,63,0.00,,---,0.00,VWS V14.01,2013-08-25 22:22:00,
2013-08-25 17:23:00,89.0,74.3,30.14,NW,321,2.0,2.0,62,0.00,,---,0.00,VWS V14.01,2013-08-25 22:23:00,
2013-08-25 17:25:00,88.9,73.7,30.14,NW,324,0.0,2.0,61,0.00,,---,0.00,VWS V14.01,2013-08-25 22:25:00,
2013-08-25 17:26:00,88.9,74.2,30.14,NW,323,0.0,2.0,62,0.00,,---,0.00,VWS V14.01,2013-08-25 22:26:00,
2013-08-25 17:27:00,88.9,74.2,30.14,NW,326,1.0,2.0,62,0.00,,---,0.00,VWS V14.01,2013-08-25 22:27:00,
2013-08-25 17:28:00,88.8,74.6,30.14,NW,314,0.0,2.0,63,0.00,,---,0.00,VWS V14.01,2013-08-25 22:28:00,
2013-08-25 17:30:00,88.8,74.6,30.14,NW,314,0.0,2.0,63,0.00,,---,0.00,VWS V14.01,2013-08-25 22:30:00,
2013-08-25 17:31:00,88.9,74.7,30.14,NW,311,0.0,2.0,63,0.00,,---,0.00,VWS V14.01,2013-08-25 22:31:00,
2013-08-25 17:32:00,89.0,74.3,30.14,NW,311,0.0,0.0,62,0.00,,---,0.00,VWS V14.01,2013-08-25 22:32:00,
2013-08-25 17:33:00,89.1,74.4,30.14,NW,311,0.0,0.0,62,0.00,,---,0.00,VWS V14.01,2013-08-25 22:33:00,
2013-08-25 17:34:00,89.1,73.4,30.14,NW,311,0.0,1.0,60,0.00,,---,0.00,VWS V14.01,2013-08-25 22:34:00,
2013-08-25 17:35:00,89.3,74.1,30.14,NW,311,2.0,2.0,61,0.00,,---,0.00,VWS V14.01,2013-08-25 22:35:00,
2013-08-25 17:36:00,89.3,74.6,30.14,NW,311,1.0,2.0,62,0.00,,---,0.00,VWS V14.01,2013-08-25 22:36:00,
2013-08-25 17:37:00,89.1,73.9,30.14,NW,311,0.0,2.0,61,0.00,,---,0.00,VWS V14.01,2013-08-25 22:37:00,
2013-08-25 17:38:00,89.0,73.8,30.14,NW,311,0.0,2.0,61,0.00,,---,0.00,VWS V14.01,2013-08-25 22:38:00,
2013-08-25 17:39:00,88.9,74.2,30.14,NW,311,0.0,2.0,62,0.00,,---,0.00,VWS V14.01,2013-08-25 22:39:00,
2013-08-25 17:41:00,88.7,73.5,30.14,NW,311,0.0,2.0,61,0.00,,---,0.00,VWS V14.01,2013-08-25 22:41:00,
2013-08-25 17:42:00,88.5,74.3,30.14,NW,311,0.0,2.0,63,0.00,,---,0.00,VWS V14.01,2013-08-25 22:42:00,
2013-08-25 17:43:00,88.4,74.2,30.14,NW,311,0.0,2.0,63,0.00,,---,0.00,VWS V14.01,2013-08-25 22:43:00,
2013-08-25 17:44:00,88.4,74.2,30.14,NW,311,0.0,2.0,63,0.00,,---,0.00,VWS V14.01,2013-08-25 22:44:00,
2013-08-25 17:46:00,88.3,74.1,30.15,NW,311,0.0,2.0,63,0.00,,---,0.00,VWS V14.01,2013-08-25 22:46:00,
2013-08-25 17:47:00,88.2,74.5,30.14,NW,311,0.0,1.0,64,0.00,,---,0.00,VWS V14.01,2013-08-25 22:47:00,
2013-08-25 17:48:00,88.1,74.4,30.15,North,4,1.0,2.0,64,0.00,,---,0.00,VWS V14.01,2013-08-25 22:48:00,
2013-08-25 17:49:00,88.1,74.4,30.15,North,360,0.0,2.0,64,0.00,,---,0.00,VWS V14.01,2013-08-25 22:49:00,
2013-08-25 17:51:00,87.9,74.2,30.14,North,349,0.0,2.0,64,0.00,,---,0.00,VWS V14.01,2013-08-25 22:51:00,
2013-08-25 17:53:00,87.7,74.0,30.15,North,349,0.0,2.0,64,0.00,,---,0.00,VWS V14.01,2013-08-25 22:53:00,
2013-08-25 17:54:00,87.6,73.9,30.14,North,349,0.0,2.0,64,0.00,,---,0.00,VWS V14.01,2013-08-25 22:54:00,
2013-08-25 17:56:00,87.3,73.6,30.14,NNW,348,1.0,2.0,64,0.00,,---,0.00,VWS V14.01,2013-08-25 22:56:00,
2013-08-25 17:58:00,87.0,73.4,30.14,North,349,1.0,2.0,64,0.00,,---,0.00,VWS V14.01,2013-08-25 22:58:00,
2013-08-25 17:59:00,86.9,73.3,30.14,North,349,1.0,2.0,64,0.00,,---,0.00,VWS V14.01,2013-08-25 22:59:00,
2013-08-25 18:01:00,86.6,73.9,30.14,East,98,1.0,2.0,66,0.00,,---,0.00,VWS V14.01,2013-08-25 23:01:00,
2013-08-25 18:03:00,86.5,74.2,30.14,East,98,0.0,1.0,67,0.00,,---,0.00,VWS V14.01,2013-08-25 23:03:00,
2013-08-25 18:04:00,86.5,74.2,30.14,East,98,0.0,1.0,67,0.00,,---,0.00,VWS V14.01,2013-08-25 23:04:00,
2013-08-25 18:06:00,86.5,73.8,30.14,East,98,0.0,1.0,66,0.00,,---,0.00,VWS V14.01,2013-08-25 23:06:00,
2013-08-25 18:07:00,86.5,73.8,30.14,East,98,0.0,1.0,66,0.00,,---,0.00,VWS V14.01,2013-08-25 23:07:00,
2013-08-25 18:08:00,86.6,73.9,30.14,East,98,0.0,1.0,66,0.00,,---,0.00,VWS V14.01,2013-08-25 23:08:00,
2013-08-25 18:09:00,86.6,73.9,30.14,East,98,0.0,1.0,66,0.00,,---,0.00,VWS V14.01,2013-08-25 23:09:00,
2013-08-25 18:11:00,86.8,73.6,30.14,East,98,0.0,1.0,65,0.00,,---,0.00,VWS V14.01,2013-08-25 23:11:00,
2013-08-25 18:12:00,86.8,73.6,30.14,East,98,0.0,1.0,65,0.00,,---,0.00,VWS V14.01,2013-08-25 23:12:00,
2013-08-25 18:13:00,86.9,73.7,30.14,East,98,1.0,1.0,65,0.00,,---,0.00,VWS V14.01,2013-08-25 23:13:00,
2013-08-25 18:14:00,86.9,73.3,30.14,East,98,0.0,1.0,64,0.00,,---,0.00,VWS V14.01,2013-08-25 23:14:00,
2013-08-25 18:16:00,86.9,73.7,30.14,East,98,0.0,0.0,65,0.00,,---,0.00,VWS V14.01,2013-08-25 23:16:00,
2013-08-25 18:17:00,87.0,73.8,30.14,East,98,0.0,0.0,65,0.00,,---,0.00,VWS V14.01,2013-08-25 23:17:00,
2013-08-25 18:18:00,87.1,73.4,30.14,East,98,0.0,0.0,64,0.00,,---,0.00,VWS V14.01,2013-08-25 23:18:00,
2013-08-25 18:19:00,87.2,73.6,30.14,East,98,0.0,0.0,64,0.00,,---,0.00,VWS V14.01,2013-08-25 23:19:00,
2013-08-25 18:21:00,87.4,74.2,30.14,East,98,0.0,0.0,65,0.00,,---,0.00,VWS V14.01,2013-08-25 23:21:00,
2013-08-25 18:23:00,87.5,74.8,30.14,East,98,0.0,0.0,66,0.00,,---,0.00,VWS V14.01,2013-08-25 23:23:00,
2013-08-25 18:24:00,87.7,74.5,30.14,East,98,0.0,0.0,65,0.00,,---,0.00,VWS V14.01,2013-08-25 23:24:00,
2013-08-25 18:25:00,87.7,74.5,30.14,East,98,0.0,0.0,65,0.00,,---,0.00,VWS V14.01,2013-08-25 23:25:00,
2013-08-25 18:27:00,87.9,74.2,30.14,East,98,0.0,0.0,64,0.00,,---,0.00,VWS V14.01,2013-08-25 23:27:00,
2013-08-25 18:28:00,87.9,74.2,30.14,East,98,0.0,0.0,64,0.00,,---,0.00,VWS V14.01,2013-08-25 23:28:00,
2013-08-25 18:29:00,87.9,74.2,30.14,East,98,0.0,0.0,64,0.00,,---,0.00,VWS V14.01,2013-08-25 23:29:00,
2013-08-25 18:30:00,87.8,74.1,30.14,East,98,0.0,0.0,64,0.00,,---,0.00,VWS V14.01,2013-08-25 23:30:00,
2013-08-25 18:32:00,87.7,74.0,30.14,East,98,0.0,0.0,64,0.00,,---,0.00,VWS V14.01,2013-08-25 23:32:00,
2013-08-25 18:33:00,87.7,74.5,30.14,East,98,1.0,1.0,65,0.00,,---,0.00,VWS V14.01,2013-08-25 23:33:00,
2013-08-25 18:34:00,87.6,74.4,30.14,East,97,1.0,2.0,65,0.00,,---,0.00,VWS V14.01,2013-08-25 23:34:00,
2013-08-25 18:35:00,87.4,73.7,30.14,East,89,1.0,2.0,64,0.00,,---,0.00,VWS V14.01,2013-08-25 23:35:00,
2013-08-25 18:37:00,87.0,73.8,30.14,ENE,58,1.0,3.0,65,0.00,,---,0.00,VWS V14.01,2013-08-25 23:37:00,
2013-08-25 18:38:00,86.8,73.6,30.14,NE,48,1.0,3.0,65,0.00,,---,0.00,VWS V14.01,2013-08-25 23:38:00,
2013-08-25 18:39:00,86.7,73.5,30.14,NE,48,0.0,3.0,65,0.00,,---,0.00,VWS V14.01,2013-08-25 23:39:00,
2013-08-25 18:40:00,86.5,73.8,30.14,NE,48,0.0,3.0,66,0.00,,---,0.00,VWS V14.01,2013-08-25 23:40:00,
2013-08-25 18:42:00,86.3,73.6,30.14,NE,48,0.0,3.0,66,0.00,,---,0.00,VWS V14.01,2013-08-25 23:42:00,
2013-08-25 18:43:00,86.2,74.0,30.14,NE,48,0.0,3.0,67,0.00,,---,0.00,VWS V14.01,2013-08-25 23:43:00,
2013-08-25 18:44:00,86.2,74.0,30.14,NE,48,0.0,3.0,67,0.00,,---,0.00,VWS V14.01,2013-08-25 23:44:00,
2013-08-25 18:45:00,86.1,74.3,30.14,NE,48,0.0,3.0,68,0.00,,---,0.00,VWS V14.01,2013-08-25 23:45:00,
2013-08-25 18:47:00,85.9,74.1,30.14,NE,48,0.0,0.0,68,0.00,,---,0.00,VWS V14.01,2013-08-25 23:47:00,
2013-08-25 18:48:00,85.7,73.9,30.14,NE,48,0.0,0.0,68,0.00,,---,0.00,VWS V14.01,2013-08-25 23:48:00,
2013-08-25 18:49:00,85.7,73.9,30.14,NE,48,0.0,0.0,68,0.00,,---,0.00,VWS V14.01,2013-08-25 23:49:00,
2013-08-25 18:50:00,85.6,73.8,30.14,NE,48,1.0,1.0,68,0.00,,---,0.00,VWS V14.01,2013-08-25 23:50:00,
2013-08-25 18:53:00,85.3,73.6,30.14,NE,45,0.0,2.0,68,0.00,,---,0.00,VWS V14.01,2013-08-25 23:53:00,
2013-08-25 18:54:00,85.2,73.4,30.14,NE,44,0.0,2.0,68,0.00,,---,0.00,VWS V14.01,2013-08-25 23:54:00,
2013-08-25 18:55:00,85.1,73.8,30.14,NE,44,0.0,2.0,69,0.00,,---,0.00,VWS V14.01,2013-08-25 23:55:00,
2013-08-25 18:56:00,85.1,73.8,30.14,NE,44,0.0,2.0,69,0.00,,---,0.00,VWS V14.01,2013-08-25 23:56:00,
2013-08-25 18:58:00,85.0,73.7,30.14,NE,44,0.0,2.0,69,0.00,,---,0.00,VWS V14.01,2013-08-25 23:58:00,
2013-08-25 18:59:00,84.9,73.6,30.14,NE,44,0.0,2.0,69,0.00,,---,0.00,VWS V14.01,2013-08-25 23:59:00,
2013-08-25 19:00:00,84.8,73.5,30.14,NE,44,0.0,2.0,69,0.00,,---,0.00,VWS V14.01,2013-08-26 00:00:00,
2013-08-25 19:01:00,84.8,73.5,30.14,NE,44,0.0,2.0,69,0.00,,---,0.00,VWS V14.01,2013-08-26 00:01:00,
2013-08-25 19:03:00,84.7,73.0,30.14,NE,42,0.0,1.0,68,0.00,,---,0.00,VWS V14.01,2013-08-26 00:03:00,
2013-08-25 19:04:00,84.7,73.4,30.14,NE,41,1.0,1.0,69,0.00,,---,0.00,VWS V14.01,2013-08-26 00:04:00,
2013-08-25 19:06:00,84.5,73.7,30.14,NE,41,0.0,1.0,70,0.00,,---,0.00,VWS V14.01,2013-08-26 00:06:00,
2013-08-25 19:08:00,84.5,73.7,30.14,NE,41,0.0,1.0,70,0.00,,---,0.00,VWS V14.01,2013-08-26 00:08:00,
2013-08-25 19:09:00,84.4,73.6,30.14,NE,42,0.0,1.0,70,0.00,,---,0.00,VWS V14.01,2013-08-26 00:09:00,
2013-08-25 19:11:00,84.3,73.5,30.14,NE,41,0.0,1.0,70,0.00,,---,0.00,VWS V14.01,2013-08-26 00:11:00,
2013-08-25 19:12:00,84.3,73.5,30.14,NE,41,0.0,1.0,70,0.00,,---,0.00,VWS V14.01,2013-08-26 00:12:00,
2013-08-25 19:13:00,84.2,72.9,30.14,NE,41,0.0,1.0,69,0.00,,---,0.00,VWS V14.01,2013-08-26 00:13:00,
2013-08-25 19:14:00,84.1,72.8,30.14,NE,41,0.0,1.0,69,0.00,,---,0.00,VWS V14.01,2013-08-26 00:14:00,
2013-08-25 19:16:00,84.1,73.3,30.14,NE,41,0.0,1.0,70,0.00,,---,0.00,VWS V14.01,2013-08-26 00:16:00,
2013-08-25 19:17:00,84.0,73.2,30.14,NE,41,0.0,0.0,70,0.00,,---,0.00,VWS V14.01,2013-08-26 00:17:00,
2013-08-25 19:18:00,83.9,73.1,30.14,NE,41,0.0,0.0,70,0.00,,---,0.00,VWS V14.01,2013-08-26 00:18:00,
2013-08-25 19:19:00,83.8,73.0,30.14,NE,41,0.0,0.0,70,0.00,,---,0.00,VWS V14.01,2013-08-26 00:19:00,
2013-08-25 19:21:00,83.7,72.9,30.14,NE,41,0.0,0.0,70,0.00,,---,0.00,VWS V14.01,2013-08-26 00:21:00,
2013-08-25 19:22:00,83.6,72.8,30.15,NE,41,0.0,0.0,70,0.00,,---,0.00,VWS V14.01,2013-08-26 00:22:00,
2013-08-25 19:24:00,83.5,72.7,30.15,NE,41,0.0,0.0,70,0.00,,---,0.00,VWS V14.01,2013-08-26 00:24:00,
2013-08-25 19:25:00,83.4,72.6,30.14,NE,41,0.0,0.0,70,0.00,,---,0.00,VWS V14.01,2013-08-26 00:25:00,
2013-08-25 19:26:00,83.4,73.0,30.15,NE,41,0.0,0.0,71,0.00,,---,0.00,VWS V14.01,2013-08-26 00:26:00,
2013-08-25 19:27:00,83.2,72.8,30.15,NE,41,0.0,0.0,71,0.00,,---,0.00,VWS V14.01,2013-08-26 00:27:00,
2013-08-25 19:29:00,83.2,72.8,30.15,NE,41,0.0,0.0,71,0.00,,---,0.00,VWS V14.01,2013-08-26 00:29:00,
2013-08-25 19:30:00,83.1,72.7,30.15,NE,41,0.0,0.0,71,0.00,,---,0.00,VWS V14.01,2013-08-26 00:30:00,
2013-08-25 19:31:00,83.1,72.7,30.15,NE,41,0.0,0.0,71,0.00,,---,0.00,VWS V14.01,2013-08-26 00:31:00,
2013-08-25 19:32:00,83.0,72.6,30.15,NE,41,0.0,0.0,71,0.00,,---,0.00,VWS V14.01,2013-08-26 00:32:00,
2013-08-25 19:34:00,82.9,72.9,30.15,NE,41,0.0,0.0,72,0.00,,---,0.00,VWS V14.01,2013-08-26 00:34:00,
2013-08-25 19:35:00,82.8,72.9,30.15,NE,41,0.0,0.0,72,0.00,,---,0.00,VWS V14.01,2013-08-26 00:35:00,
2013-08-25 19:36:00,82.7,72.8,30.15,NE,41,0.0,0.0,72,0.00,,---,0.00,VWS V14.01,2013-08-26 00:36:00,
2013-08-25 19:37:00,82.7,72.8,30.15,NE,41,0.0,0.0,72,0.00,,---,0.00,VWS V14.01,2013-08-26 00:37:00,
2013-08-25 19:39:00,82.5,72.6,30.15,NE,41,0.0,0.0,72,0.00,,---,0.00,VWS V14.01,2013-08-26 00:39:00,
2013-08-25 19:40:00,82.5,72.6,30.15,NE,41,0.0,0.0,72,0.00,,---,0.00,VWS V14.01,2013-08-26 00:40:00,
2013-08-25 19:41:00,82.4,72.9,30.15,NE,41,0.0,0.0,73,0.00,,---,0.00,VWS V14.01,2013-08-26 00:41:00,
2013-08-25 19:43:00,82.4,72.9,30.15,NE,41,0.0,0.0,73,0.00,,---,0.00,VWS V14.01,2013-08-26 00:43:00,
2013-08-25 19:44:00,82.3,72.8,30.15,NE,41,0.0,0.0,73,0.00,,---,0.00,VWS V14.01,2013-08-26 00:44:00,
2013-08-25 19:45:00,82.3,72.8,30.16,NE,41,0.0,0.0,73,0.00,,---,0.00,VWS V14.01,2013-08-26 00:45:00,
2013-08-25 19:46:00,82.2,72.7,30.16,NE,41,0.0,0.0,73,0.00,,---,0.00,VWS V14.01,2013-08-26 00:46:00,
2013-08-25 19:48:00,82.1,73.0,30.16,NE,41,0.0,0.0,74,0.00,,---,0.00,VWS V14.01,2013-08-26 00:48:00,
2013-08-25 19:49:00,82.0,72.9,30.16,NE,41,0.0,0.0,74,0.00,,---,0.00,VWS V14.01,2013-08-26 00:49:00,
2013-08-25 19:50:00,82.0,72.9,30.16,NE,41,0.0,0.0,74,0.00,,---,0.00,VWS V14.01,2013-08-26 00:50:00,
2013-08-25 19:51:00,81.9,72.8,30.16,NE,41,0.0,0.0,74,0.00,,---,0.00,VWS V14.01,2013-08-26 00:51:00,
2013-08-25 19:53:00,81.8,72.7,30.16,NE,41,0.0,0.0,74,0.00,,---,0.00,VWS V14.01,2013-08-26 00:53:00,
2013-08-25 19:54:00,81.8,72.7,30.16,NE,41,0.0,0.0,74,0.00,,---,0.00,VWS V14.01,2013-08-26 00:54:00,
2013-08-25 19:55:00,81.7,72.6,30.16,NE,41,0.0,0.0,74,0.00,,---,0.00,VWS V14.01,2013-08-26 00:55:00,
2013-08-25 19:57:00,81.6,72.9,30.16,NE,41,0.0,0.0,75,0.00,,---,0.00,VWS V14.01,2013-08-26 00:57:00,
2013-08-25 19:59:00,81.5,72.8,30.16,NE,41,0.0,0.0,75,0.00,,---,0.00,VWS V14.01,2013-08-26 00:59:00,
2013-08-25 20:00:00,81.4,72.7,30.16,NE,41,0.0,0.0,75,0.00,,---,0.00,VWS V14.01,2013-08-26 01:00:00,
2013-08-25 20:01:00,81.4,72.7,30.16,NE,41,0.0,0.0,75,0.00,,---,0.00,VWS V14.01,2013-08-26 01:01:00,
2013-08-25 20:02:00,81.4,72.7,30.16,NE,41,0.0,0.0,75,0.00,,---,0.00,VWS V14.01,2013-08-26 01:02:00,
2013-08-25 20:04:00,81.3,73.0,30.16,NE,41,0.0,0.0,76,0.00,,---,0.00,VWS V14.01,2013-08-26 01:04:00,
2013-08-25 20:06:00,81.2,72.9,30.16,NE,41,0.0,0.0,76,0.00,,---,0.00,VWS V14.01,2013-08-26 01:06:00,
2013-08-25 20:08:00,81.1,72.8,30.16,NE,41,0.0,0.0,76,0.00,,---,0.00,VWS V14.01,2013-08-26 01:08:00,
2013-08-25 20:09:00,81.0,72.7,30.16,NE,41,0.0,0.0,76,0.00,,---,0.00,VWS V14.01,2013-08-26 01:09:00,
2013-08-25 20:11:00,81.0,72.7,30.16,NE,41,0.0,0.0,76,0.00,,---,0.00,VWS V14.01,2013-08-26 01:11:00,
2013-08-25 20:13:00,80.9,72.6,30.16,NE,41,0.0,0.0,76,0.00,,---,0.00,VWS V14.01,2013-08-26 01:13:00,
2013-08-25 20:14:00,80.8,72.5,30.16,NNW,328,0.0,0.0,76,0.00,,---,0.00,VWS V14.01,2013-08-26 01:14:00,
2013-08-25 20:16:00,80.7,72.4,30.16,NNW,328,0.0,0.0,76,0.00,,---,0.00,VWS V14.01,2013-08-26 01:16:00,
2013-08-25 20:18:00,80.6,72.3,30.16,NNW,328,0.0,0.0,76,0.00,,---,0.00,VWS V14.01,2013-08-26 01:18:00,
2013-08-25 20:19:00,80.6,72.3,30.16,NNW,328,0.0,0.0,76,0.00,,---,0.00,VWS V14.01,2013-08-26 01:19:00,
2013-08-25 20:20:00,80.6,72.3,30.16,NNW,328,0.0,0.0,76,0.00,,---,0.00,VWS V14.01,2013-08-26 01:20:00,
2013-08-25 20:21:00,80.6,72.3,30.16,NNW,328,0.0,0.0,76,0.00,,---,0.00,VWS V14.01,2013-08-26 01:21:00,
2013-08-25 20:23:00,80.5,72.2,30.16,NNW,328,0.0,0.0,76,0.00,,---,0.00,VWS V14.01,2013-08-26 01:23:00,
2013-08-25 20:24:00,80.5,72.2,30.16,NNW,328,0.0,0.0,76,0.00,,---,0.00,VWS V14.01,2013-08-26 01:24:00,
2013-08-25 20:25:00,80.5,72.2,30.16,NNW,328,0.0,0.0,76,0.00,,---,0.00,VWS V14.01,2013-08-26 01:25:00,
2013-08-25 20:26:00,80.4,72.2,30.16,NNW,328,0.0,0.0,76,0.00,,---,0.00,VWS V14.01,2013-08-26 01:26:00,
2013-08-25 20:28:00,80.4,72.5,30.16,NNW,328,0.0,0.0,77,0.00,,---,0.00,VWS V14.01,2013-08-26 01:28:00,
2013-08-25 20:29:00,80.4,72.5,30.16,NNW,328,0.0,0.0,77,0.00,,---,0.00,VWS V14.01,2013-08-26 01:29:00,
2013-08-25 20:30:00,80.3,72.4,30.16,NNW,328,0.0,0.0,77,0.00,,---,0.00,VWS V14.01,2013-08-26 01:30:00,
2013-08-25 20:31:00,80.3,72.4,30.16,NNW,328,0.0,0.0,77,0.00,,---,0.00,VWS V14.01,2013-08-26 01:31:00,
2013-08-25 20:32:00,80.3,73.0,30.16,NNW,328,0.0,0.0,77,0.00,,,0.00,weatherlink.com 1.10,2013-08-26 01:32:00,
2013-08-25 20:34:00,80.2,72.3,30.17,NNW,328,0.0,0.0,77,0.00,,---,0.00,VWS V14.01,2013-08-26 01:34:00,
2013-08-25 20:35:00,80.2,72.3,30.17,NNW,328,0.0,0.0,77,0.00,,---,0.00,VWS V14.01,2013-08-26 01:35:00,
2013-08-25 20:37:00,80.2,72.3,30.17,NNW,328,0.0,0.0,77,0.00,,---,0.00,VWS V14.01,2013-08-26 01:37:00,
2013-08-25 20:39:00,80.1,72.2,30.17,NNW,328,0.0,0.0,77,0.00,,---,0.00,VWS V14.01,2013-08-26 01:39:00,
2013-08-25 20:40:00,80.1,72.2,30.17,NNW,328,0.0,0.0,77,0.00,,---,0.00,VWS V14.01,2013-08-26 01:40:00,
2013-08-25 20:42:00,80.1,72.2,30.17,NNW,328,0.0,0.0,77,0.00,,---,0.00,VWS V14.01,2013-08-26 01:42:00,
2013-08-25 20:43:00,80.1,72.2,30.17,NNW,328,0.0,0.0,77,0.00,,---,0.00,VWS V14.01,2013-08-26 01:43:00,
2013-08-25 20:44:00,80.1,72.2,30.17,NNW,328,0.0,0.0,77,0.00,,---,0.00,VWS V14.01,2013-08-26 01:44:00,
2013-08-25 20:45:00,80.0,72.2,30.17,NNW,328,0.0,0.0,77,0.00,,---,0.00,VWS V14.01,2013-08-26 01:45:00,
2013-08-25 20:47:00,80.0,72.2,30.17,NNW,328,0.0,0.0,77,0.00,,---,0.00,VWS V14.01,2013-08-26 01:47:00,
2013-08-25 20:48:00,80.0,72.2,30.17,NNW,328,0.0,0.0,77,0.00,,---,0.00,VWS V14.01,2013-08-26 01:48:00,
2013-08-25 20:49:00,80.0,72.2,30.17,NNW,328,0.0,0.0,77,0.00,,---,0.00,VWS V14.01,2013-08-26 01:49:00,
2013-08-25 20:50:00,79.9,72.1,30.17,NNW,328,0.0,0.0,77,0.00,,---,0.00,VWS V14.01,2013-08-26 01:50:00,
2013-08-25 20:51:00,79.9,72.1,30.17,NNW,328,0.0,0.0,77,0.00,,---,0.00,VWS V14.01,2013-08-26 01:51:00,
2013-08-25 20:52:00,79.9,72.1,30.17,NNW,328,0.0,0.0,77,0.00,,---,0.00,VWS V14.01,2013-08-26 01:52:00,
2013-08-25 20:53:00,79.9,72.1,30.17,NNW,328,0.0,0.0,77,0.00,,---,0.00,VWS V14.01,2013-08-26 01:53:00,
2013-08-25 20:54:00,79.8,72.3,30.17,NNW,328,0.0,0.0,78,0.00,,---,0.00,VWS V14.01,2013-08-26 01:54:00,
2013-08-25 20:55:00,79.8,72.3,30.17,NNW,328,0.0,0.0,78,0.00,,---,0.00,VWS V14.01,2013-08-26 01:55:00,
2013-08-25 20:56:00,79.8,72.3,30.17,NNW,328,0.0,0.0,78,0.00,,---,0.00,VWS V14.01,2013-08-26 01:56:00,
2013-08-25 20:57:00,79.8,72.3,30.17,NNW,328,0.0,0.0,78,0.00,,---,0.00,VWS V14.01,2013-08-26 01:57:00,
2013-08-25 20:58:00,79.7,72.2,30.17,NNW,328,0.0,0.0,78,0.00,,---,0.00,VWS V14.01,2013-08-26 01:58:00,
2013-08-25 21:00:00,79.7,72.2,30.17,NNW,328,0.0,0.0,78,0.00,,---,0.00,VWS V14.01,2013-08-26 02:00:00,
2013-08-25 21:01:00,79.6,72.1,30.17,NNW,328,0.0,0.0,78,0.00,,---,0.00,VWS V14.01,2013-08-26 02:01:00,
2013-08-25 21:03:00,79.6,72.1,30.18,NNW,328,0.0,0.0,78,0.00,,---,0.00,VWS V14.01,2013-08-26 02:03:00,
2013-08-25 21:05:00,79.4,72.3,30.17,NNW,328,0.0,0.0,79,0.00,,---,0.00,VWS V14.01,2013-08-26 02:05:00,
2013-08-25 21:06:00,79.4,72.3,30.17,NNW,328,0.0,0.0,79,0.00,,---,0.00,VWS V14.01,2013-08-26 02:06:00,
2013-08-25 21:08:00,79.3,72.2,30.18,NNW,328,0.0,0.0,79,0.00,,---,0.00,VWS V14.01,2013-08-26 02:08:00,
2013-08-25 21:10:00,79.2,72.1,30.18,NNW,328,0.0,0.0,79,0.00,,---,0.00,VWS V14.01,2013-08-26 02:10:00,
2013-08-25 21:11:00,79.2,72.1,30.18,NNW,328,0.0,0.0,79,0.00,,---,0.00,VWS V14.01,2013-08-26 02:11:00,
2013-08-25 21:13:00,79.1,72.4,30.18,NNW,328,0.0,0.0,80,0.00,,---,0.00,VWS V14.01,2013-08-26 02:13:00,
2013-08-25 21:15:00,79.0,72.3,30.18,NNW,328,0.0,0.0,80,0.00,,---,0.00,VWS V14.01,2013-08-26 02:15:00,
2013-08-25 21:16:00,79.0,72.3,30.18,NNW,328,0.0,0.0,80,0.00,,---,0.00,VWS V14.01,2013-08-26 02:16:00,
2013-08-25 21:18:00,79.0,72.3,30.18,NNW,328,0.0,0.0,80,0.00,,---,0.00,VWS V14.01,2013-08-26 02:18:00,
2013-08-25 21:19:00,78.9,72.2,30.18,NNW,328,0.0,0.0,80,0.00,,---,0.00,VWS V14.01,2013-08-26 02:19:00,
2013-08-25 21:20:00,78.9,72.2,30.18,NNW,328,0.0,0.0,80,0.00,,---,0.00,VWS V14.01,2013-08-26 02:20:00,
2013-08-25 21:21:00,78.9,72.2,30.18,NNW,328,0.0,0.0,80,0.00,,---,0.00,VWS V14.01,2013-08-26 02:21:00,
2013-08-25 21:23:00,78.8,72.1,30.18,NNW,328,0.0,0.0,80,0.00,,---,0.00,VWS V14.01,2013-08-26 02:23:00,
2013-08-25 21:24:00,78.8,72.5,30.18,NNW,328,0.0,0.0,81,0.00,,---,0.00,VWS V14.01,2013-08-26 02:24:00,
2013-08-25 21:26:00,78.7,72.4,30.18,NNW,328,0.0,0.0,81,0.00,,---,0.00,VWS V14.01,2013-08-26 02:26:00,
2013-08-25 21:27:00,78.7,72.4,30.18,NNW,328,0.0,0.0,81,0.00,,---,0.00,VWS V14.01,2013-08-26 02:27:00,
2013-08-25 21:28:00,78.6,72.3,30.18,NNW,328,0.0,0.0,81,0.00,,---,0.00,VWS V14.01,2013-08-26 02:28:00,
2013-08-25 21:29:00,78.6,72.3,30.18,NNW,328,0.0,0.0,81,0.00,,---,0.00,VWS V14.01,2013-08-26 02:29:00,
2013-08-25 21:31:00,78.5,72.2,30.18,NNW,328,0.0,0.0,81,0.00,,---,0.00,VWS V14.01,2013-08-26 02:31:00,
2013-08-25 21:32:00,78.5,72.2,30.18,NNW,328,0.0,0.0,81,0.00,,---,0.00,VWS V14.01,2013-08-26 02:32:00,
2013-08-25 21:34:00,78.4,72.1,30.19,NNW,328,0.0,0.0,81,0.00,,---,0.00,VWS V14.01,2013-08-26 02:34:00,
2013-08-25 21:35:00,78.4,72.1,30.18,NNW,328,0.0,0.0,81,0.00,,---,0.00,VWS V14.01,2013-08-26 02:35:00,
2013-08-25 21:36:00,78.4,72.1,30.19,NNW,328,0.0,0.0,81,0.00,,---,0.00,VWS V14.01,2013-08-26 02:36:00,
2013-08-25 21:37:00,78.4,72.1,30.19,NNW,328,0.0,0.0,81,0.00,,---,0.00,VWS V14.01,2013-08-26 02:37:00,
2013-08-25 21:39:00,78.3,72.0,30.19,NNW,328,0.0,0.0,81,0.00,,---,0.00,VWS V14.01,2013-08-26 02:39:00,
2013-08-25 21:40:00,78.3,72.0,30.19,NNW,328,0.0,0.0,81,0.00,,---,0.00,VWS V14.01,2013-08-26 02:40:00,
2013-08-25 21:41:00,78.3,72.0,30.19,NNW,328,0.0,0.0,81,0.00,,---,0.00,VWS V14.01,2013-08-26 02:41:00,
2013-08-25 21:43:00,78.3,72.0,30.19,NNW,328,0.0,0.0,81,0.00,,---,0.00,VWS V14.01,2013-08-26 02:43:00,
2013-08-25 21:44:00,78.3,72.0,30.19,NNW,328,0.0,0.0,81,0.00,,---,0.00,VWS V14.01,2013-08-26 02:44:00,
2013-08-25 21:45:00,78.2,71.9,30.19,NNW,328,0.0,0.0,81,0.00,,---,0.00,VWS V14.01,2013-08-26 02:45:00,
2013-08-25 21:46:00,78.2,71.9,30.19,NNW,328,0.0,0.0,81,0.00,,---,0.00,VWS V14.01,2013-08-26 02:46:00,
2013-08-25 21:48:00,78.2,72.3,30.19,NNW,328,0.0,0.0,82,0.00,,---,0.00,VWS V14.01,2013-08-26 02:48:00,
2013-08-25 21:49:00,78.2,72.3,30.19,NNW,328,0.0,0.0,82,0.00,,---,0.00,VWS V14.01,2013-08-26 02:49:00,
2013-08-25 21:50:00,78.1,72.2,30.19,NNW,328,0.0,0.0,82,0.00,,---,0.00,VWS V14.01,2013-08-26 02:50:00,
2013-08-25 21:51:00,78.1,72.2,30.19,NNW,328,0.0,0.0,82,0.00,,---,0.00,VWS V14.01,2013-08-26 02:51:00,
2013-08-25 21:53:00,78.1,72.2,30.19,NNW,328,0.0,0.0,82,0.00,,---,0.00,VWS V14.01,2013-08-26 02:53:00,
2013-08-25 21:54:00,78.1,72.2,30.19,NNW,328,0.0,0.0,82,0.00,,---,0.00,VWS V14.01,2013-08-26 02:54:00,
2013-08-25 21:55:00,78.0,72.1,30.19,NNW,328,0.0,0.0,82,0.00,,---,0.00,VWS V14.01,2013-08-26 02:55:00,
2013-08-25 21:56:00,78.0,72.1,30.19,NNW,328,0.0,0.0,82,0.00,,---,0.00,VWS V14.01,2013-08-26 02:56:00,
2013-08-25 21:57:00,78.0,72.1,30.19,NNW,328,0.0,0.0,82,0.00,,---,0.00,VWS V14.01,2013-08-26 02:57:00,
2013-08-25 21:58:00,77.9,72.0,30.19,NNW,328,0.0,0.0,82,0.00,,---,0.00,VWS V14.01,2013-08-26 02:58:00,
2013-08-25 22:00:00,77.9,72.0,30.19,NNW,328,0.0,0.0,82,0.00,,---,0.00,VWS V14.01,2013-08-26 03:00:00,
2013-08-25 22:02:00,77.9,72.0,30.19,NNW,328,0.0,0.0,82,0.00,,---,0.00,VWS V14.01,2013-08-26 03:02:00,
2013-08-25 22:03:00,77.8,71.9,30.19,NNW,328,0.0,0.0,82,0.00,,---,0.00,VWS V14.01,2013-08-26 03:03:00,
2013-08-25 22:05:00,77.9,72.0,30.19,NNW,328,0.0,0.0,82,0.00,,---,0.00,VWS V14.01,2013-08-26 03:05:00,
2013-08-25 22:07:00,77.8,72.2,30.19,NNW,328,0.0,0.0,83,0.00,,---,0.00,VWS V14.01,2013-08-26 03:07:00,
2013-08-25 22:08:00,77.8,72.2,30.19,NNW,328,0.0,0.0,83,0.00,,---,0.00,VWS V14.01,2013-08-26 03:08:00,
2013-08-25 22:10:00,77.8,72.2,30.19,NNW,328,0.0,0.0,83,0.00,,---,0.00,VWS V14.01,2013-08-26 03:10:00,
2013-08-25 22:12:00,77.7,72.1,30.19,NNW,328,0.0,0.0,83,0.00,,---,0.00,VWS V14.01,2013-08-26 03:12:00,
2013-08-25 22:13:00,77.7,72.1,30.19,NNW,328,0.0,0.0,83,0.00,,---,0.00,VWS V14.01,2013-08-26 03:13:00,
2013-08-25 22:15:00,77.7,72.1,30.19,NNW,328,0.0,0.0,83,0.00,,---,0.00,VWS V14.01,2013-08-26 03:15:00,
2013-08-25 22:16:00,77.7,72.1,30.19,NNW,328,0.0,0.0,83,0.00,,---,0.00,VWS V14.01,2013-08-26 03:16:00,
2013-08-25 22:17:00,77.6,72.0,30.19,NNW,328,0.0,0.0,83,0.00,,---,0.00,VWS V14.01,2013-08-26 03:17:00,
2013-08-25 22:18:00,77.6,72.0,30.19,NNW,328,0.0,0.0,83,0.00,,---,0.00,VWS V14.01,2013-08-26 03:18:00,
2013-08-25 22:19:00,77.6,72.0,30.19,NNW,328,0.0,0.0,83,0.00,,---,0.00,VWS V14.01,2013-08-26 03:19:00,
2013-08-25 22:20:00,77.6,72.0,30.19,NNW,328,0.0,0.0,83,0.00,,---,0.00,VWS V14.01,2013-08-26 03:20:00,
2013-08-25 22:21:00,77.6,72.0,30.19,NNW,328,0.0,0.0,83,0.00,,---,0.00,VWS V14.01,2013-08-26 03:21:00,
2013-08-25 22:22:00,77.5,72.3,30.19,NNW,328,0.0,0.0,84,0.00,,---,0.00,VWS V14.01,2013-08-26 03:22:00,
2013-08-25 22:23:00,77.5,72.3,30.19,NNW,328,0.0,0.0,84,0.00,,---,0.00,VWS V14.01,2013-08-26 03:23:00,
2013-08-25 22:24:00,77.5,72.3,30.19,NNW,328,0.0,0.0,84,0.00,,---,0.00,VWS V14.01,2013-08-26 03:24:00,
2013-08-25 22:25:00,77.4,72.2,30.19,NNW,328,0.0,0.0,84,0.00,,---,0.00,VWS V14.01,2013-08-26 03:25:00,
2013-08-25 22:26:00,77.4,72.2,30.19,NNW,328,0.0,0.0,84,0.00,,---,0.00,VWS V14.01,2013-08-26 03:26:00,
2013-08-25 22:28:00,77.4,72.2,30.19,NNW,328,0.0,0.0,84,0.00,,---,0.00,VWS V14.01,2013-08-26 03:28:00,
2013-08-25 22:29:00,77.3,72.1,30.19,NNW,328,0.0,0.0,84,0.00,,---,0.00,VWS V14.01,2013-08-26 03:29:00,
2013-08-25 22:30:00,77.3,72.1,30.19,NNW,328,0.0,0.0,84,0.00,,---,0.00,VWS V14.01,2013-08-26 03:30:00,
2013-08-25 22:31:00,77.3,72.1,30.19,NNW,328,0.0,0.0,84,0.00,,---,0.00,VWS V14.01,2013-08-26 03:31:00,
2013-08-25 22:33:00,77.3,72.1,30.19,NNW,328,0.0,0.0,84,0.00,,---,0.00,VWS V14.01,2013-08-26 03:33:00,
2013-08-25 22:34:00,77.2,72.0,30.19,NNW,328,0.0,0.0,84,0.00,,---,0.00,VWS V14.01,2013-08-26 03:34:00,
2013-08-25 22:36:00,77.2,72.3,30.19,NNW,328,0.0,0.0,85,0.00,,---,0.00,VWS V14.01,2013-08-26 03:36:00,
2013-08-25 22:38:00,77.1,72.2,30.19,NNW,328,0.0,0.0,85,0.00,,---,0.00,VWS V14.01,2013-08-26 03:38:00,
2013-08-25 22:39:00,77.1,72.2,30.19,NW,326,0.0,0.0,85,0.00,,---,0.00,VWS V14.01,2013-08-26 03:39:00,
2013-08-25 22:41:00,77.0,72.2,30.19,NW,326,0.0,0.0,85,0.00,,---,0.00,VWS V14.01,2013-08-26 03:41:00,
2013-08-25 22:42:00,77.1,72.2,30.19,NW,326,0.0,0.0,85,0.00,,---,0.00,VWS V14.01,2013-08-26 03:42:00,
2013-08-25 22:44:00,77.0,72.2,30.19,NW,326,0.0,0.0,85,0.00,,---,0.00,VWS V14.01,2013-08-26 03:44:00,
2013-08-25 22:46:00,76.9,72.1,30.19,NW,326,0.0,0.0,85,0.00,,---,0.00,VWS V14.01,2013-08-26 03:46:00,
2013-08-25 22:47:00,76.9,72.1,30.19,NW,326,0.0,0.0,85,0.00,,---,0.00,VWS V14.01,2013-08-26 03:47:00,
2013-08-25 22:49:00,76.8,71.9,30.19,NW,326,0.0,0.0,85,0.00,,---,0.00,VWS V14.01,2013-08-26 03:49:00,
2013-08-25 22:52:00,76.8,71.9,30.19,NW,326,0.0,0.0,85,0.00,,---,0.00,VWS V14.01,2013-08-26 03:52:00,
2013-08-25 22:54:00,76.7,71.9,30.19,NW,326,0.0,0.0,85,0.00,,---,0.00,VWS V14.01,2013-08-26 03:54:00,
2013-08-25 22:55:00,76.7,71.9,30.19,NW,326,0.0,0.0,85,0.00,,---,0.00,VWS V14.01,2013-08-26 03:55:00,
2013-08-25 22:57:00,76.7,71.9,30.19,NW,326,0.0,0.0,85,0.00,,---,0.00,VWS V14.01,2013-08-26 03:57:00,
2013-08-25 22:59:00,76.7,71.9,30.19,NNW,327,0.0,0.0,85,0.00,,---,0.00,VWS V14.01,2013-08-26 03:59:00,
2013-08-25 23:00:00,76.7,71.9,30.19,NW,326,0.0,0.0,85,0.00,,---,0.00,VWS V14.01,2013-08-26 04:00:00,
2013-08-25 23:01:00,76.7,71.9,30.19,NW,326,0.0,0.0,85,0.00,,---,0.00,VWS V14.01,2013-08-26 04:01:00,
2013-08-25 23:06:00,76.6,71.8,30.19,NW,326,0.0,0.0,85,0.00,,---,0.00,VWS V14.01,2013-08-26 04:06:00,
2013-08-25 23:11:00,76.5,71.7,30.19,NW,326,0.0,0.0,85,0.00,,---,0.00,VWS V14.01,2013-08-26 04:11:00,
2013-08-25 23:16:00,76.4,71.9,30.19,North,3,1.0,1.0,86,0.00,,---,0.00,VWS V14.01,2013-08-26 04:16:00,
2013-08-25 23:17:00,76.4,71.9,30.19,North,3,0.0,0.0,86,0.00,,---,0.00,VWS V14.01,2013-08-26 04:17:00,
2013-08-25 23:21:00,76.4,71.6,30.19,NNW,346,0.0,0.0,85,0.00,,---,0.00,VWS V14.01,2013-08-26 04:21:00,
2013-08-25 23:22:00,76.4,71.6,30.19,NNW,346,0.0,0.0,85,0.00,,---,0.00,VWS V14.01,2013-08-26 04:22:00,
2013-08-25 23:26:00,76.4,71.6,30.19,NNW,346,0.0,0.0,85,0.00,,---,0.00,VWS V14.01,2013-08-26 04:26:00,
2013-08-25 23:27:00,76.4,71.6,30.19,NNW,346,0.0,0.0,85,0.00,,---,0.00,VWS V14.01,2013-08-26 04:27:00,
2013-08-25 23:31:00,76.3,71.5,30.19,NNW,346,0.0,0.0,85,0.00,,---,0.00,VWS V14.01,2013-08-26 04:31:00,
2013-08-25 23:32:00,76.3,71.5,30.19,NNW,346,0.0,0.0,85,0.00,,---,0.00,VWS V14.01,2013-08-26 04:32:00,
2013-08-25 23:36:00,76.2,71.4,30.19,NNW,346,0.0,0.0,85,0.00,,---,0.00,VWS V14.01,2013-08-26 04:36:00,
2013-08-25 23:37:00,76.2,71.4,30.19,NNW,346,0.0,0.0,85,0.00,,---,0.00,VWS V14.01,2013-08-26 04:37:00,
2013-08-25 23:41:00,76.1,71.6,30.20,NNW,346,0.0,0.0,86,0.00,,---,0.00,VWS V14.01,2013-08-26 04:41:00,
2013-08-25 23:42:00,76.1,71.6,30.20,NNW,346,0.0,0.0,86,0.00,,---,0.00,VWS V14.01,2013-08-26 04:42:00,
2013-08-25 23:46:00,76.0,71.5,30.19,NNW,346,0.0,0.0,86,0.00,,---,0.00,VWS V14.01,2013-08-26 04:46:00,
2013-08-25 23:47:00,76.0,71.5,30.19,NNW,346,0.0,0.0,86,0.00,,---,0.00,VWS V14.01,2013-08-26 04:47:00,
2013-08-25 23:48:00,76.0,71.5,30.19,NNW,346,0.0,0.0,86,0.00,,---,0.00,VWS V14.01,2013-08-26 04:48:00,
2013-08-25 23:52:00,75.9,71.4,30.19,NNW,346,0.0,0.0,86,0.00,,---,0.00,VWS V14.01,2013-08-26 04:52:00,
2013-08-25 23:53:00,75.9,71.4,30.19,NNW,346,0.0,0.0,86,0.00,,---,0.00,VWS V14.01,2013-08-26 04:53:00,
2013-08-25 23:57:00,75.8,71.3,30.19,WNW,297,0.0,0.0,86,0.00,,---,0.00,VWS V14.01,2013-08-26 04:57:00,